KC5DAQ-24 Weather Reports


Display with metric or nautical units.
time (UTC)temp
F
wind
direction
speed
MPH
gust
MPH
rain 1hr
in
rain 24hr
in
rain mn
in
humidity
%
barometer
mb
20260509222103 90 250 3.0 5.0 0.00 0.00 0.00 57 1006.2
20260509222003 90 250 3.0 5.0 0.00 0.00 0.00 57 1006.2
20260509221903 90 250 3.0 5.0 0.00 0.00 0.00 57 1006.2
20260509221803 90 250 3.0 5.0 0.00 0.00 0.00 57 1006.2
20260509221703 90 250 4.0 5.0 0.00 0.00 0.00 57 1006.2
20260509221602 90 250 4.0 5.0 0.00 0.00 0.00 56 1006.2
20260509221504 91 248 2.0 5.0 0.00 0.00 0.00 57 1006.2
20260509221402 91 248 0.0 5.0 0.00 0.00 0.00 57 1006.2
20260509221304 90 248 0.0 5.0 0.00 0.00 0.00 56 1006.1
20260509221203 91 248 2.0 5.0 0.00 0.00 0.00 56 1006.2
20260509221102 91 248 4.0 5.0 0.00 0.00 0.00 57 1006.2
20260509221004 91 248 3.0 5.0 0.00 0.00 0.00 57 1006.2
20260509220903 90 248 2.0 3.0 0.00 0.00 0.00 58 1006.2
20260509220805 91 248 2.0 3.0 0.00 0.00 0.00 56 1006.1
20260509220703 91 248 2.0 3.0 0.00 0.00 0.00 56 1006.2
20260509220603 91 248 2.0 3.0 0.00 0.00 0.00 56 1006.2
20260509220504 91 248 2.0 3.0 0.00 0.00 0.00 56 1006.2
20260509220404 91 248 2.0 3.0 0.00 0.00 0.00 56 1006.2
20260509220303 91 248 2.0 3.0 0.00 0.00 0.00 56 1006.1
20260509220204 91 248 3.0 3.0 0.00 0.00 0.00 56 1006.2
20260509220103 91 248 0.0 3.0 0.00 0.00 0.00 62 1006.2
20260509220004 91 248 0.0 3.0 0.00 0.00 0.00 62 1006.2
20260509215903 91 248 0.0 3.0 0.00 0.00 0.00 62 1006.2
20260509215804 91 248 0.0 3.0 0.00 0.00 0.00 62 1006.2
20260509215703 91 248 0.0 3.0 0.00 0.00 0.00 62 1006.2
20260509215604 91 248 0.0 3.0 0.00 0.00 0.00 62 1006.2
20260509215502 91 248 0.0 3.0 0.00 0.00 0.00 59 1006.2
20260509215403 91 248 2.0 3.0 0.00 0.00 0.00 59 1006.2
20260509215306 91 248 2.0 3.0 0.00 0.00 0.00 59 1006.1
20260509215203 91 248 2.0 3.0 0.00 0.00 0.00 59 1006.2
20260509215103 91 248 2.0 3.0 0.00 0.00 0.00 59 1006.2
20260509215004 91 248 2.0 3.0 0.00 0.00 0.00 59 1006.2
20260509214903 91 248 2.0 3.0 0.00 0.00 0.00 59 1006.2
20260509214803 91 248 2.0 3.0 0.00 0.00 0.00 59 1006.2
20260509214702 91 248 2.0 3.0 0.00 0.00 0.00 60 1006.2
20260509214603 91 248 1.0 2.0 0.00 0.00 0.00 60 1006.2
20260509214504 91 248 1.0 2.0 0.00 0.00 0.00 60 1006.2
20260509214404 91 248 1.0 2.0 0.00 0.00 0.00 60 1006.2
20260509214303 91 248 1.0 2.0 0.00 0.00 0.00 60 1006.2
20260509214203 91 248 1.0 2.0 0.00 0.00 0.00 60 1006.3
20260509214103 91 248 1.0 2.0 0.00 0.00 0.00 60 1006.2
20260509214005 91 248 1.0 2.0 0.00 0.00 0.00 61 1006.2
20260509213903 0 0.0 0.0 0.00 0.00 0.00 1006.2
20260509213804 0 0.0 0.0 0.00 0.00 0.00 1006.2
20260509213703 0 0.0 0.0 0.00 0.00 0.00 1006.2
20260509213604 0 0.0 0.0 0.00 0.00 0.00 1006.2
20260509213503 0 0.0 0.0 0.00 0.00 0.00 1006.2
20260509213404 0 0.0 0.0 0.00 0.00 0.00 1006.3
20260509213303 0 0.0 0.0 0.00 0.00 0.00 1006.2
20260509213203 0 0.0 0.0 0.00 0.00 0.00 1006.2
20260509213103 0 0.0 0.0 0.00 0.00 0.00 1006.2
20260509213005 0 0.0 0.0 0.00 0.00 0.00 1006.2
20260509212903 0 0.0 0.0 0.00 0.00 0.00 1006.2
20260509212804 0 0.0 0.0 0.00 0.00 0.00 1006.2
20260509212703 0 0.0 0.0 0.00 0.00 0.00 1006.2
20260509212603 0 0.0 0.0 0.00 0.00 0.00 1006.2
20260509212504 0 0.0 0.0 0.00 0.00 0.00 1006.2
20260509212403 0 0.0 0.0 0.00 0.00 0.00 1006.2
20260509212305 0 0.0 0.0 0.00 0.00 0.00 1006.2
20260509212202 0 0.0 0.0 0.00 0.00 0.00 1006.2
20260509212103 90 251 0.0 0.0 0.00 0.00 0.00 61 1006.2
20260509212003 90 251 0.0 0.0 0.00 0.00 0.00 61 1006.2
20260509211903 90 251 0.0 0.0 0.00 0.00 0.00 61 1006.2
20260509211803 90 251 0.0 0.0 0.00 0.00 0.00 61 1006.2
20260509211703 90 251 0.0 0.0 0.00 0.00 0.00 61 1006.2
20260509211602 90 251 0.0 0.0 0.00 0.00 0.00 61 1006.2
20260509211504 90 251 0.0 0.0 0.00 0.00 0.00 61 1006.2
20260509211403 90 251 0.0 0.0 0.00 0.00 0.00 61 1006.3
20260509211303 90 251 0.0 0.0 0.00 0.00 0.00 61 1006.2
20260509211203 90 251 0.0 0.0 0.00 0.00 0.00 61 1006.3
20260509211103 90 251 0.0 0.0 0.00 0.00 0.00 61 1006.3
20260509211004 90 251 0.0 0.0 0.00 0.00 0.00 61 1006.3
20260509210904 90 251 0.0 0.0 0.00 0.00 0.00 60 1006.3
20260509210802 91 251 0.0 0.0 0.00 0.00 0.00 59 1006.3
20260509210703 91 251 0.0 1.0 0.00 0.00 0.00 59 1006.4
20260509210604 91 251 0.0 2.0 0.00 0.00 0.00 59 1006.3
20260509210503 91 251 0.0 2.0 0.00 0.00 0.00 61 1006.4
20260509210403 90 251 1.0 2.0 0.00 0.00 0.00 61 1006.4
20260509210304 90 251 1.0 3.0 0.00 0.00 0.00 61 1006.4
20260509210203 90 251 1.0 3.0 0.00 0.00 0.00 61 1006.4
20260509210003 90 251 1.0 3.0 0.00 0.00 0.00 61 1006.4
20260509205903 90 251 1.0 3.0 0.00 0.00 0.00 61 1006.4
20260509205803 90 251 1.0 3.0 0.00 0.00 0.00 61 1006.4
20260509205705 90 251 1.0 3.0 0.00 0.00 0.00 61 1006.5
20260509205602 90 251 1.0 3.0 0.00 0.00 0.00 60 1006.5
20260509205505 90 251 1.0 3.0 0.00 0.00 0.00 60 1006.5
20260509205402 90 251 2.0 3.0 0.00 0.00 0.00 60 1006.5
20260509205306 90 251 1.0 3.0 0.00 0.00 0.00 60 1006.6
20260509205203 90 251 0.0 1.0 0.00 0.00 0.00 60 1006.7
20260509205102 90 251 0.0 0.0 0.00 0.00 0.00 60 1006.7
20260509205003 0 251 0.0 0.0 0.00 0.00 0.00 1006.7
20260509204903 0 0.0 0.0 0.00 0.00 0.00 1006.8
20260509204804 0 0.0 0.0 0.00 0.00 0.00 1006.8
20260509204703 0 0.0 0.0 0.00 0.00 0.00 1006.7
20260509204604 0 0.0 0.0 0.00 0.00 0.00 1006.7
20260509204504 0 0.0 0.0 0.00 0.00 0.00 1006.7
20260509204403 0 0.0 0.0 0.00 0.00 0.00 1006.6
20260509204303 0 0.0 0.0 0.00 0.00 0.00 1006.6
20260509204203 0 0.0 0.0 0.00 0.00 0.00 1006.7
20260509204104 0 0.0 0.0 0.00 0.00 0.00 1006.7
20260509204003 0 0.0 0.0 0.00 0.00 0.00 1006.7
20260509203903 0 0.0 0.0 0.00 0.00 0.00 1006.7
20260509203802 0 0.0 0.0 0.00 0.00 0.00 1006.7
20260509203703 0 0.0 0.0 0.00 0.00 0.00 1006.8
20260509203603 0 0.0 0.0 0.00 0.00 0.00 1006.8
20260509203504 0 0.0 0.0 0.00 0.00 0.00 1006.7
20260509203403 0 0.0 0.0 0.00 0.00 0.00 1006.8
20260509203303 0 0.0 0.0 0.00 0.00 0.00 1006.8
20260509203203 0 0.0 0.0 0.00 0.00 0.00 1006.9
20260509203103 0 0.0 0.0 0.00 0.00 0.00 1006.8
20260509203002 0 0.0 0.0 0.00 0.00 0.00 1006.8
20260509202903 0 0.0 0.0 0.00 0.00 0.00 1006.8
20260509202803 0 0.0 0.0 0.00 0.00 0.00 1006.8
20260509202703 0 0.0 0.0 0.00 0.00 0.00 1006.8
20260509202603 0 0.0 0.0 0.00 0.00 0.00 1006.8
20260509202504 0 0.0 0.0 0.00 0.00 0.00 1006.8
20260509202403 0 0.0 0.0 0.00 0.00 0.00 1006.9
20260509202306 0 0.0 0.0 0.00 0.00 0.00 1006.8
20260509202203 0 0.0 0.0 0.00 0.00 0.00 1006.9
20260509202103 0 0.0 0.0 0.00 0.00 0.00 1006.9
20260509202004 0 0.0 0.0 0.00 0.00 0.00 1006.9
20260509201903 0 0.0 0.0 0.00 0.00 0.00 1007.0
20260509201803 0 0.0 0.0 0.00 0.00 0.00 1006.9
20260509201703 0 0.0 0.0 0.00 0.00 0.00 1007.0
20260509201603 0 0.0 0.0 0.00 0.00 0.00 1007.0
20260509201504 0 0.0 0.0 0.00 0.00 0.00 1006.8
20260509201403 0 0.0 0.0 0.00 0.00 0.00 1006.9
20260509201304 0 0.0 0.0 0.00 0.00 0.00 1006.9
20260509201203 0 0.0 0.0 0.00 0.00 0.00 1006.9
20260509201103 89 248 3.0 7.0 0.00 0.00 0.00 61 1006.8
20260509201003 89 248 3.0 7.0 0.00 0.00 0.00 61 1006.9
20260509200903 89 248 3.0 7.0 0.00 0.00 0.00 61 1006.9
20260509200803 89 248 3.0 7.0 0.00 0.00 0.00 61 1006.9
20260509200703 89 248 3.0 7.0 0.00 0.00 0.00 61 1007.0
20260509200603 89 248 3.0 7.0 0.00 0.00 0.00 61 1007.0
20260509200504 89 248 3.0 7.0 0.00 0.00 0.00 61 1007.0
20260509200403 89 248 3.0 7.0 0.00 0.00 0.00 61 1007.0
20260509200303 89 248 3.0 7.0 0.00 0.00 0.00 61 1007.0
20260509200203 89 248 3.0 7.0 0.00 0.00 0.00 61 1007.0
20260509200103 89 248 1.0 6.0 0.00 0.00 0.00 61 1007.0
20260509200005 89 248 1.0 6.0 0.00 0.00 0.00 61 1007.1
20260509195904 89 248 1.0 6.0 0.00 0.00 0.00 61 1007.1
20260509195803 89 248 3.0 6.0 0.00 0.00 0.00 62 1007.1
20260509195702 88 248 4.0 6.0 0.00 0.00 0.00 64 1007.2
20260509195602 88 248 2.0 6.0 0.00 0.00 0.00 64 1007.1
20260509195501 88 248 0.0 1.0 0.00 0.00 0.00 62 1007.1
20260509195403 88 248 0.0 1.0 0.00 0.00 0.00 62 1007.2
20260509195306 0 248 1.0 1.0 0.00 0.00 0.00 1007.1
20260509195204 0 0.0 0.0 0.00 0.00 0.00 1007.2
20260509195104 88 245 2.0 7.0 0.00 0.00 0.00 65 1007.2
20260509195004 88 245 2.0 7.0 0.00 0.00 0.00 65 1007.2
20260509194904 88 245 2.0 7.0 0.00 0.00 0.00 65 1007.2
20260509194803 88 245 2.0 7.0 0.00 0.00 0.00 65 1007.1
20260509194703 88 245 2.0 7.0 0.00 0.00 0.00 65 1007.2
20260509194602 88 245 2.0 7.0 0.00 0.00 0.00 65 1007.2
20260509194504 88 245 2.0 7.0 0.00 0.00 0.00 65 1007.3
20260509194403 88 245 2.0 7.0 0.00 0.00 0.00 65 1007.3
20260509194304 88 245 2.0 7.0 0.00 0.00 0.00 65 1007.3
20260509194203 88 245 2.0 7.0 0.00 0.00 0.00 65 1007.3
20260509194103 88 245 1.0 5.0 0.00 0.00 0.00 65 1007.3
20260509194003 88 245 2.0 5.0 0.00 0.00 0.00 65 1007.3
20260509193904 88 245 2.0 5.0 0.00 0.00 0.00 65 1007.3
20260509193802 88 245 2.0 5.0 0.00 0.00 0.00 65 1007.3
20260509193703 88 245 2.0 5.0 0.00 0.00 0.00 65 1007.4
20260509193603 88 245 2.0 5.0 0.00 0.00 0.00 65 1007.4
20260509193504 88 245 2.0 4.0 0.00 0.00 0.00 65 1007.4
20260509193402 88 245 3.0 4.0 0.00 0.00 0.00 72 1007.5
20260509193304 0 0.0 0.0 0.00 0.00 0.00 1007.4
20260509193202 0 0.0 0.0 0.00 0.00 0.00 1007.3
20260509193103 0 0.0 0.0 0.00 0.01 0.00 1007.4
20260509193002 0 0.0 0.0 0.00 0.01 0.00 1007.4
20260509192903 0 0.0 0.0 0.00 0.01 0.00 1007.3
20260509192802 0 0.0 0.0 0.00 0.01 0.00 1007.3
20260509192703 0 0.0 0.0 0.00 0.01 0.00 1007.3
20260509192603 0 0.0 0.0 0.00 0.01 0.00 1007.3
20260509192503 0 0.0 0.0 0.00 0.01 0.00 1007.3
20260509192403 0 0.0 0.0 0.00 0.01 0.00 1007.4
20260509192306 0 0.0 0.0 0.00 0.01 0.00 1007.4
20260509192203 0 0.0 0.0 0.00 0.01 0.00 1007.4
20260509192103 0 0.0 0.0 0.00 0.01 0.00 1007.4
20260509192002 0 0.0 0.0 0.00 0.01 0.00 1007.4
20260509191903 0 0.0 0.0 0.00 0.01 0.00 1007.5
20260509191802 0 0.0 0.0 0.00 0.01 0.00 1007.4
20260509191702 0 0.0 0.0 0.00 0.01 0.00 1007.5
20260509191600 0 0.0 0.0 0.00 0.01 0.00 1007.6
20260509191501 0 0.0 0.0 0.00 0.01 0.00 1007.5
20260509191401 0 0.0 0.0 0.00 0.01 0.00 1007.6
20260509191302 0 0.0 0.0 0.00 0.01 0.00 1007.6
20260509191200 0 0.0 0.0 0.00 0.01 0.00 1007.5
20260509191059 0 0.0 0.0 0.00 0.01 0.00 1007.6
20260509191000 0 0.0 0.0 0.00 0.01 0.00 1007.5
20260509190859 0 0.0 0.0 0.00 0.01 0.00 1007.6
20260509190800 0 0.0 0.0 0.00 0.01 0.00 1007.6
20260509190659 0 0.0 0.0 0.00 0.01 0.00 1007.5
20260509190557 0 0.0 0.0 0.00 0.01 0.00 1007.6
20260509190457 0 0.0 0.0 0.00 0.01 0.00 1007.5
20260509190358 0 0.0 0.0 0.00 0.01 0.00 1007.6
20260509190257 0 0.0 0.0 0.00 0.01 0.00 1007.5
20260509190158 0 0.0 0.0 0.00 0.01 0.00 1007.5
20260509190056 0 0.0 0.0 0.00 0.01 0.00 1007.5
20260509185955 0 0.0 0.0 0.00 0.01 0.00 1007.6
20260509185855 0 0.0 0.0 0.00 0.01 0.00 1007.5
20260509185756 0 0.0 0.0 0.00 0.01 0.00 1007.5
20260509185655 0 0.0 0.0 0.00 0.01 0.00 1007.5
20260509185554 0 0.0 0.0 0.00 0.01 0.00 1007.6
20260509185453 0 0.0 0.0 0.00 0.01 0.00 1007.6
20260509185354 0 0.0 0.0 0.00 0.01 0.00 1007.6
20260509185253 0 0.0 0.0 0.00 0.01 0.00 1007.6
20260509185154 0 0.0 0.0 0.00 0.01 0.00 1007.5
20260509185052 0 0.0 0.0 0.00 0.01 0.00 1007.5
20260509184952 0 0.0 0.0 0.00 0.01 0.00 1007.6
20260509184851 0 0.0 0.0 0.00 0.01 0.00 1007.6
20260509184751 0 0.0 0.0 0.00 0.01 0.00 1007.6
20260509184652 0 0.0 0.0 0.00 0.01 0.00 1007.6
20260509184550 0 0.0 0.0 0.00 0.01 0.00 1007.6
20260509184451 85 243 0.0 0.0 0.00 0.01 0.00 72 1007.6
20260509184350 85 243 0.0 0.0 0.00 0.01 0.00 72 1007.6
20260509184249 85 243 0.0 2.0 0.00 0.01 0.00 72 1007.7
20260509184149 85 243 0.0 4.0 0.00 0.01 0.00 72 1007.7
20260509184048 85 243 0.0 4.0 0.00 0.01 0.00 72 1007.7
20260509183948 85 243 0.0 4.0 0.00 0.01 0.00 72 1007.7
20260509183848 85 243 0.0 4.0 0.00 0.01 0.00 72 1007.8
20260509183748 85 243 0.0 4.0 0.00 0.01 0.00 72 1007.8
20260509183647 85 243 0.0 4.0 0.00 0.01 0.00 72 1007.8
20260509183547 85 243 0.0 4.0 0.00 0.01 0.00 72 1007.8
20260509183448 85 243 0.0 4.0 0.00 0.01 0.00 72 1007.8
20260509183346 86 243 2.0 4.0 0.00 0.01 0.00 74 1007.8
20260509183248 85 243 1.0 4.0 0.00 0.01 0.00 73 1007.9
20260509183148 85 243 0.0 1.0 0.00 0.01 0.00 73 1007.9
20260509183048 85 243 0.0 1.0 0.00 0.01 0.00 72 1007.9
20260509182946 85 243 0.0 1.0 0.00 0.01 0.00 71 1008.0
20260509182847 85 243 0.0 0.0 0.00 0.01 0.00 77 1007.9
20260509182748 0 0.0 0.0 0.00 0.01 0.00 1008.0
20260509182647 0 0.0 0.0 0.00 0.01 0.00 1008.0
20260509182545 0 0.0 0.0 0.00 0.01 0.00 1007.9
20260509182446 0 0.0 0.0 0.00 0.01 0.00 1008.0
20260509182346 0 0.0 0.0 0.00 0.01 0.00 1008.0
20260509182246 0 0.0 0.0 0.00 0.01 0.00 1008.0
20260509182146 0 0.0 0.0 0.00 0.02 0.00 1008.1
20260509182045 0 0.0 0.0 0.00 0.02 0.00 1008.1
20260509181944 0 0.0 0.0 0.00 0.02 0.00 1008.1
20260509181845 0 0.0 0.0 0.00 0.02 0.00 1008.2
20260509181744 0 0.0 0.0 0.00 0.02 0.00 1008.1
20260509181645 0 0.0 0.0 0.00 0.02 0.00 1008.2
20260509181542 0 0.0 0.0 0.00 0.02 0.00 1008.2
20260509181442 0 0.0 0.0 0.00 0.02 0.00 1008.2
20260509181344 0 0.0 0.0 0.00 0.02 0.00 1008.3
20260509181242 0 0.0 0.0 0.00 0.02 0.00 1008.2
20260509181142 0 0.0 0.0 0.00 0.02 0.00 1008.3
20260509181041 0 0.0 0.0 0.00 0.02 0.00 1008.4
20260509180940 0 0.0 0.0 0.00 0.02 0.00 1008.3
20260509180841 0 0.0 0.0 0.00 0.02 0.00 1008.5
20260509180740 0 0.0 0.0 0.00 0.02 0.00 1008.5
20260509180640 0 0.0 0.0 0.00 0.02 0.00 1008.5
20260509180539 0 0.0 0.0 0.00 0.02 0.00 1008.5
20260509180439 0 0.0 0.0 0.00 0.02 0.00 1008.6
20260509180338 0 0.0 0.0 0.00 0.02 0.00 1008.5
20260509180239 0 0.0 0.0 0.00 0.02 0.00 1008.6
20260509180139 0 0.0 0.0 0.00 0.02 0.00 1008.7
20260509180038 0 0.0 0.0 0.00 0.02 0.00 1008.6
20260509175938 0 0.0 0.0 0.00 0.02 0.00 1008.6
20260509175835 0 0.0 0.0 0.00 0.02 0.00 1008.7
20260509175736 0 0.0 0.0 0.00 0.02 0.00 1008.7
20260509175632 0 0.0 0.0 0.00 0.02 0.00 1008.7
20260509175532 0 0.0 0.0 0.00 0.02 0.00 1008.7
20260509175432 0 0.0 0.0 0.00 0.02 0.00 1008.8
20260509175332 0 0.0 0.0 0.00 0.02 0.00 1008.7
20260509175232 0 0.0 0.0 0.00 0.02 0.00 1008.8
20260509175131 0 0.0 0.0 0.00 0.02 0.00 1008.8
20260509175032 0 0.0 0.0 0.00 0.02 0.00 1008.8
20260509174933 0 0.0 0.0 0.00 0.02 0.00 1008.8
20260509174833 0 0.0 0.0 0.00 0.02 0.00 1008.8
20260509174732 0 0.0 0.0 0.00 0.02 0.00 1008.9
20260509174632 0 0.0 0.0 0.00 0.02 0.00 1008.8
20260509174531 0 0.0 0.0 0.00 0.02 0.00 1008.8
20260509174431 0 0.0 0.0 0.00 0.02 0.00 1008.8
20260509174331 0 0.0 0.0 0.00 0.02 0.00 1008.7
20260509174231 0 0.0 0.0 0.00 0.02 0.00 1008.8
20260509174131 0 0.0 0.0 0.00 0.02 0.00 1008.7
20260509174030 0 0.0 0.0 0.00 0.02 0.00 1008.6
20260509173929 83 216 4.0 4.0 0.00 0.02 0.00 77 1008.7
20260509173830 83 216 4.0 7.0 0.00 0.02 0.00 77 1008.6
20260509173729 83 216 4.0 11.0 0.00 0.02 0.00 77 1008.7
20260509173629 83 216 4.0 11.0 0.00 0.02 0.00 77 1008.7
20260509173528 83 216 4.0 11.0 0.00 0.02 0.00 77 1008.7
20260509173431 83 216 4.0 11.0 0.00 0.02 0.00 77 1008.7
20260509173303 83 216 4.0 11.0 0.00 0.02 0.00 77 1008.7
20260509173203 83 216 4.0 11.0 0.00 0.02 0.00 77 1008.8
20260509173103 83 216 4.0 11.0 0.00 0.02 0.00 77 1008.8
20260509173003 83 216 5.0 11.0 0.00 0.02 0.00 76 1008.8
20260509172902 83 216 6.0 11.0 0.00 0.02 0.00 76 1008.8
20260509172802 83 219 5.0 9.0 0.00 0.02 0.00 77 1008.9
20260509172702 83 137 5.0 9.0 0.00 0.02 0.00 77 1008.9
20260509172603 83 135 6.0 9.0 0.00 0.02 0.00 79 1008.9
20260509172504 82 131 6.0 9.0 0.00 0.02 0.00 79 1009.0
20260509172403 82 114 5.0 9.0 0.00 0.02 0.00 80 1009.0
20260509172306 82 89 4.0 4.0 0.00 0.02 0.00 83 1009.0
20260509172203 0 0.0 0.0 0.00 0.02 0.00 1009.1
20260509172103 0 0.0 0.0 0.00 0.02 0.00 1009.0
20260509172003 0 0.0 0.0 0.00 0.02 0.00 1009.1
20260509171903 0 0.0 0.0 0.00 0.02 0.00 1009.1
20260509171803 0 0.0 0.0 0.00 0.02 0.00 1009.1
20260509171704 0 0.0 0.0 0.00 0.02 0.00 1009.1
20260509171603 0 0.0 0.0 0.00 0.02 0.00 1009.2
20260509171504 0 0.0 0.0 0.00 0.02 0.00 1009.1
20260509171404 0 0.0 0.0 0.00 0.02 0.00 1009.1
20260509171303 0 0.0 0.0 0.00 0.02 0.00 1009.2
20260509171203 0 0.0 0.0 0.00 0.02 0.00 1009.2
20260509171103 0 0.0 0.0 0.00 0.02 0.00 1009.2
20260509171003 0 0.0 0.0 0.00 0.02 0.00 1009.3
20260509170903 0 0.0 0.0 0.00 0.02 0.00 1009.3
20260509170803 0 0.0 0.0 0.00 0.02 0.00 1009.3
20260509170703 0 0.0 0.0 0.00 0.02 0.00 1009.2
20260509170604 0 0.0 0.0 0.00 0.02 0.00 1009.2
20260509170504 0 0.0 0.0 0.00 0.02 0.00 1009.3
20260509170403 0 0.0 0.0 0.00 0.02 0.00 1009.2
20260509170303 0 0.0 0.0 0.00 0.02 0.00 1009.3
20260509170203 0 0.0 0.0 0.00 0.02 0.00 1009.3
20260509170104 0 0.0 0.0 0.00 0.02 0.00 1009.3
20260509170003 0 0.0 0.0 0.00 0.02 0.00 1009.4
20260509165903 0 0.0 0.0 0.00 0.02 0.00 1009.4
20260509165804 0 0.0 0.0 0.00 0.02 0.00 1009.3
20260509165703 0 0.0 0.0 0.00 0.02 0.00 1009.3
20260509165603 0 0.0 0.0 0.00 0.02 0.00 1009.3
20260509165504 0 0.0 0.0 0.00 0.02 0.00 1009.3
20260509165403 0 0.0 0.0 0.00 0.02 0.00 1009.3
20260509165306 0 0.0 0.0 0.00 0.02 0.00 1009.3
20260509165203 0 0.0 0.0 0.00 0.02 0.00 1009.3
20260509165102 0 0.0 0.0 0.00 0.02 0.00 1009.2
20260509165003 0 0.0 0.0 0.00 0.02 0.00 1009.3
20260509164903 0 0.0 0.0 0.00 0.02 0.00 1009.3
20260509164804 0 0.0 0.0 0.00 0.03 0.00 1009.3
20260509164703 0 0.0 0.0 0.00 0.03 0.00 1009.2
20260509164603 0 0.0 0.0 0.00 0.03 0.00 1009.2
20260509164504 0 0.0 0.0 0.00 0.03 0.00 1009.3
20260509164404 0 0.0 0.0 0.00 0.03 0.00 1009.3
20260509164303 0 0.0 0.0 0.00 0.03 0.00 1009.2
20260509164203 0 0.0 0.0 0.00 0.03 0.00 1009.2
20260509164103 0 0.0 0.0 0.00 0.03 0.00 1009.2
20260509164003 0 0.0 0.0 0.00 0.03 0.00 1009.3
20260509163903 0 0.0 0.0 0.00 0.03 0.00 1009.3
20260509163803 0 0.0 0.0 0.00 0.03 0.00 1009.2
20260509163703 0 0.0 0.0 0.00 0.03 0.00 1009.3
20260509163603 0 0.0 0.0 0.00 0.03 0.00 1009.2
20260509163504 0 0.0 0.0 0.00 0.03 0.00 1009.3
20260509163403 80 79 0.0 0.0 0.00 0.03 0.00 83 1009.2
20260509163303 80 79 0.0 0.0 0.00 0.03 0.00 83 1009.2
20260509163204 80 79 0.0 1.0 0.00 0.03 0.00 83 1009.2
20260509163103 80 79 0.0 1.0 0.00 0.03 0.00 83 1009.1
20260509163004 80 79 0.0 1.0 0.00 0.03 0.00 83 1009.2
20260509162902 80 79 0.0 1.0 0.00 0.03 0.00 83 1009.2
20260509162803 80 79 0.0 1.0 0.00 0.03 0.00 83 1009.2
20260509162703 80 79 0.0 1.0 0.00 0.03 0.00 83 1009.2
20260509162603 80 79 0.0 1.0 0.00 0.03 0.00 83 1009.1
20260509162504 80 79 0.0 1.0 0.00 0.03 0.00 83 1009.1
20260509162403 80 79 0.0 1.0 0.00 0.03 0.00 84 1009.2
20260509162307 80 79 0.0 1.0 0.00 0.03 0.00 84 1009.1
20260509162205 80 79 0.0 0.0 0.00 0.03 0.00 84 1009.1
20260509162102 80 79 0.0 0.0 0.00 0.03 0.00 84 1009.1
20260509162003 80 79 0.0 0.0 0.00 0.03 0.00 84 1009.2
20260509161902 80 79 0.0 0.0 0.00 0.03 0.00 84 1009.2
20260509161803 80 79 0.0 0.0 0.00 0.03 0.00 89 1009.2
20260509161703 0 0.0 0.0 0.00 0.03 0.00 1009.2
20260509161603 0 0.0 0.0 0.00 0.03 0.00 1009.2
20260509161504 0 0.0 0.0 0.00 0.03 0.00 1009.3
20260509161403 80 79 0.0 0.0 0.00 0.03 0.00 89 1009.3
20260509161303 80 79 0.0 0.0 0.00 0.03 0.00 89 1009.2
20260509161204 80 79 0.0 0.0 0.00 0.03 0.00 89 1009.2
20260509161103 80 79 0.0 0.0 0.00 0.03 0.00 89 1009.2
20260509161003 80 79 0.0 0.0 0.00 0.03 0.00 89 1009.3
20260509160903 80 79 0.0 0.0 0.00 0.03 0.00 89 1009.2
20260509160803 80 79 0.0 0.0 0.00 0.03 0.00 89 1009.2
20260509160703 80 79 0.0 0.0 0.00 0.03 0.00 89 1009.2
20260509160603 80 79 0.0 0.0 0.00 0.03 0.00 89 1009.2
20260509160504 80 79 0.0 0.0 0.00 0.03 0.00 89 1009.2
20260509160403 0 0.0 0.0 0.00 0.03 0.00 1009.2
20260509160303 0 0.0 0.0 0.00 0.03 0.00 1009.2
20260509160202 0 0.0 0.0 0.00 0.03 0.00 1009.2
20260509160002 0 0.0 0.0 0.00 0.03 0.00 1009.3
20260509155901 0 0.0 0.0 0.00 0.03 0.00 1009.2
20260509155801 0 0.0 0.0 0.00 0.03 0.00 1009.2
20260509155700 0 0.0 0.0 0.00 0.03 0.00 1009.2
20260509155600 0 0.0 0.0 0.00 0.03 0.00 1009.2
20260509155459 0 0.0 0.0 0.00 0.03 0.00 1009.2
20260509155400 0 0.0 0.0 0.00 0.03 0.00 1009.2
20260509155300 0 0.0 0.0 0.00 0.03 0.00 1009.1
20260509155158 0 0.0 0.0 0.00 0.03 0.00 1009.1
20260509155058 0 0.0 0.0 0.00 0.03 0.00 1009.1
20260509154957 0 0.0 0.0 0.00 0.03 0.00 1009.1
20260509154858 0 0.0 0.0 0.00 0.03 0.00 1009.1
20260509154757 0 0.0 0.0 0.00 0.03 0.00 1009.2
20260509154657 0 0.0 0.0 0.00 0.03 0.00 1009.3
20260509154556 0 0.0 0.0 0.00 0.03 0.00 1009.2
20260509154457 0 0.0 0.0 0.00 0.03 0.00 1009.2
20260509154356 0 0.0 0.0 0.00 0.03 0.00 1009.2
20260509154257 0 0.0 0.0 0.00 0.03 0.00 1009.1
20260509154154 0 0.0 0.0 0.00 0.03 0.00 1009.0
20260509154055 0 0.0 0.0 0.00 0.03 0.00 1009.0
20260509153954 0 0.0 0.0 0.00 0.03 0.00 1009.0
20260509153854 0 0.0 0.0 0.00 0.03 0.00 1009.0
20260509153754 0 0.0 0.0 0.00 0.03 0.00 1009.0
20260509153652 0 0.0 0.0 0.00 0.03 0.00 1009.0
20260509153552 0 0.0 0.0 0.00 0.03 0.00 1009.0
20260509153453 0 0.0 0.0 0.00 0.03 0.00 1009.0
20260509153352 0 0.0 0.0 0.00 0.03 0.00 1008.9
20260509153252 0 0.0 0.0 0.00 0.03 0.00 1008.9
20260509153151 0 0.0 0.0 0.00 0.03 0.00 1008.9
20260509153050 78 82 0.0 0.0 0.00 0.03 0.00 89 1009.0
20260509152951 78 82 0.0 0.0 0.00 0.03 0.00 89 1009.0
20260509152851 78 82 0.0 0.0 0.00 0.03 0.00 89 1008.9
20260509152752 78 82 0.0 0.0 0.00 0.03 0.00 89 1009.0
20260509152649 78 82 0.0 0.0 0.00 0.03 0.00 89 1009.0
20260509152548 78 82 0.0 0.0 0.00 0.03 0.00 89 1009.0
20260509152449 78 82 0.0 0.0 0.00 0.03 0.00 89 1009.0
20260509152348 78 82 0.0 0.0 0.00 0.03 0.00 89 1009.0
20260509152231 78 82 0.0 0.0 0.00 0.03 0.00 89 1009.1
20260509152132 78 82 0.0 0.0 0.00 0.03 0.00 89 1009.1
20260509152031 78 79 0.0 0.0 0.00 0.03 0.00 89 1009.2
20260509151932 78 79 0.0 0.0 0.00 0.03 0.00 89 1009.2
20260509151832 78 79 0.0 0.0 0.00 0.03 0.00 89 1009.2
20260509151732 78 79 0.0 0.0 0.00 0.03 0.00 89 1009.2
20260509151632 78 79 0.0 0.0 0.00 0.03 0.00 89 1009.2
20260509151531 78 78 0.0 0.0 0.00 0.03 0.00 89 1009.1
20260509151430 78 78 0.0 0.0 0.00 0.03 0.00 89 1009.1
20260509151331 78 0 0.0 0.0 0.00 0.03 0.00 90 1009.1
20260509151232 78 0 0.0 0.0 0.00 0.03 0.00 90 1009.1
20260509151132 78 0 0.0 0.0 0.00 0.03 0.00 90 1009.1
20260509151033 78 0 0.0 0.0 0.00 0.03 0.00 90 1009.1
20260509150933 78 0 0.0 0.0 0.00 0.03 0.00 90 1009.2
20260509150832 78 0 0.0 0.0 0.00 0.03 0.00 90 1009.2
20260509150731 78 0 0.0 0.0 0.00 0.03 0.00 90 1009.1
20260509150632 78 0 0.0 0.0 0.00 0.03 0.00 90 1009.1
20260509150532 78 0 0.0 0.0 0.00 0.03 0.00 90 1009.1
20260509150404 78 0 0.0 0.0 0.00 0.03 0.00 90 1009.1
20260509150301 78 0 0.0 0.0 0.00 0.03 0.00 90 1009.1
20260509150201 78 0 0.0 0.0 0.00 0.03 0.00 91 1009.1
20260509150103 78 0 0.0 0.0 0.00 0.03 0.00 91 1009.0
20260509150002 78 0 0.0 0.0 0.00 0.03 0.00 91 1009.0
20260509145902 78 0 0.0 0.0 0.00 0.03 0.00 93 1008.9
20260509145803 0 0.0 0.0 0.00 0.03 0.00 1009.0
20260509145703 0 0.0 0.0 0.00 0.03 0.00 1008.8
20260509145603 0 0.0 0.0 0.00 0.03 0.00 1008.9
20260509145503 0 0.0 0.0 0.00 0.03 0.00 1009.0
20260509145403 0 0.0 0.0 0.00 0.03 0.00 1008.9
20260509145306 0 0.0 0.0 0.00 0.03 0.00 1008.9
20260509145203 0 0.0 0.0 0.00 0.03 0.00 1008.8
20260509145104 0 0.0 0.0 0.00 0.03 0.00 1008.8
20260509145003 0 0.0 0.0 0.00 0.03 0.00 1008.9
20260509144903 0 0.0 0.0 0.00 0.03 0.00 1008.8
20260509144803 0 0.0 0.0 0.00 0.03 0.00 1008.9
20260509144703 0 0.0 0.0 0.00 0.03 0.00 1008.8
20260509144603 0 0.0 0.0 0.00 0.03 0.00 1008.9
20260509144503 0 0.0 0.0 0.00 0.03 0.00 1008.9
20260509144403 0 0.0 0.0 0.00 0.03 0.00 1009.0
20260509144303 0 0.0 0.0 0.00 0.03 0.00 1009.0
20260509144203 0 0.0 0.0 0.00 0.03 0.00 1008.9
20260509144103 0 0.0 0.0 0.00 0.03 0.00 1008.9
20260509144005 0 0.0 0.0 0.00 0.03 0.00 1008.9
20260509143903 0 0.0 0.0 0.00 0.03 0.00 1008.8
20260509143804 0 0.0 0.0 0.00 0.03 0.00 1008.8
20260509143703 0 0.0 0.0 0.00 0.03 0.00 1008.8
20260509143604 0 0.0 0.0 0.00 0.03 0.00 1008.9
20260509143503 0 0.0 0.0 0.00 0.03 0.00 1008.8
20260509143403 0 0.0 0.0 0.00 0.03 0.00 1008.8
20260509143303 0 0.0 0.0 0.00 0.03 0.00 1008.6
20260509143203 0 0.0 0.0 0.00 0.03 0.00 1008.6
20260509143103 0 0.0 0.0 0.00 0.03 0.00 1008.6
20260509143003 0 0.0 0.0 0.00 0.03 0.00 1008.5
20260509142904 0 0.0 0.0 0.00 0.03 0.00 1008.5
20260509142802 0 0.0 0.0 0.00 0.03 0.00 1008.6
20260509142703 0 0.0 0.0 0.00 0.03 0.00 1008.6
20260509142603 0 0.0 0.0 0.00 0.03 0.00 1008.7
20260509142504 77 0 0.0 0.0 0.00 0.03 0.00 93 1008.7
20260509142403 77 0 0.0 1.0 0.00 0.03 0.00 93 1008.7
20260509142306 77 0 0.0 2.0 0.00 0.03 0.00 93 1008.7
20260509142204 77 0 0.0 2.0 0.00 0.03 0.00 93 1008.6
20260509142103 77 0 0.0 2.0 0.00 0.03 0.00 93 1008.6
20260509142004 77 0 0.0 3.0 0.00 0.03 0.00 93 1008.6
20260509141903 77 0 0.0 3.0 0.00 0.03 0.00 93 1008.5
20260509141803 77 0 0.0 3.0 0.00 0.03 0.00 93 1008.5
20260509141703 77 0 0.0 3.0 0.00 0.03 0.00 93 1008.3
20260509141603 77 0 0.0 3.0 0.00 0.03 0.00 93 1008.2
20260509141505 77 0 0.0 3.0 0.00 0.03 0.00 93 1008.2
20260509141402 77 0 1.0 3.0 0.00 0.03 0.00 93 1008.2
20260509141303 77 0 0.0 3.0 0.00 0.03 0.00 93 1008.2
20260509141203 77 0 1.0 3.0 0.00 0.03 0.00 93 1008.2
20260509141102 77 0 2.0 3.0 0.00 0.03 0.00 93 1008.2
20260509141002 77 0 1.0 2.0 0.00 0.03 0.00 93 1008.2
20260509140903 77 0 1.0 1.0 0.00 0.03 0.00 93 1008.2
20260509140804 77 0 0.0 0.0 0.00 0.03 0.00 93 1008.1
20260509140632 77 0 0.0 0.0 0.00 0.03 0.00 93 1008.1
20260509140531 77 0 0.0 1.0 0.00 0.03 0.00 93 1008.2
20260509140431 77 0 0.0 1.0 0.00 0.03 0.00 93 1008.2
20260509140331 77 0 0.0 1.0 0.00 0.03 0.00 93 1008.3
20260509140230 77 0 0.0 1.0 0.00 0.03 0.00 93 1008.3
20260509140132 77 0 0.0 1.0 0.00 0.03 0.00 93 1008.3
20260509140032 77 0 0.0 1.0 0.00 0.03 0.00 93 1008.3
20260509135931 76 0 0.0 1.0 0.00 0.03 0.00 93 1008.3
20260509135832 76 0 0.0 1.0 0.00 0.03 0.00 93 1008.2
20260509135730 76 0 0.0 1.0 0.00 0.03 0.00 93 1008.2
20260509135632 76 0 0.0 1.0 0.00 0.03 0.00 93 1008.2
20260509135532 76 0 0.0 1.0 0.00 0.03 0.00 93 1008.3
20260509135431 76 0 0.0 2.0 0.00 0.03 0.00 93 1008.3
20260509135330 76 0 0.0 2.0 0.00 0.03 0.00 93 1008.2
20260509135231 76 0 0.0 2.0 0.00 0.03 0.00 93 1008.4
20260509135130 76 0 0.0 2.0 0.00 0.03 0.00 93 1008.4
20260509135031 76 0 0.0 2.0 0.00 0.03 0.00 93 1008.4
20260509134932 76 0 0.0 2.0 0.00 0.03 0.00 93 1008.5
20260509134831 76 0 0.0 2.0 0.00 0.03 0.00 93 1008.5
20260509134732 76 0 0.0 2.0 0.00 0.03 0.00 93 1008.6
20260509134631 76 0 1.0 2.0 0.00 0.03 0.00 94 1008.6
20260509134532 76 0 1.0 2.0 0.00 0.03 0.00 94 1008.7
20260509134432 76 0 0.0 1.0 0.00 0.03 0.00 94 1008.6
20260509134332 0 0 0.0 0.0 0.00 0.03 0.00 1008.6
20260509134232 0 0.0 0.0 0.00 0.03 0.00 1008.5
20260509134132 0 0.0 0.0 0.00 0.03 0.00 1008.5
20260509134032 0 0.0 0.0 0.00 0.03 0.00 1008.5
20260509133932 0 0.0 0.0 0.00 0.03 0.00 1008.7
20260509133833 0 0.0 0.0 0.00 0.03 0.00 1008.7
20260509133733 0 0.0 0.0 0.00 0.03 0.00 1008.8
20260509133632 0 0.0 0.0 0.00 0.03 0.00 1008.8
20260509133532 0 0.0 0.0 0.00 0.03 0.00 1008.8
20260509133431 76 0 0.0 0.0 0.00 0.03 0.00 94 1008.9
20260509133332 76 0 0.0 0.0 0.00 0.03 0.00 94 1009.0
20260509133231 76 0 0.0 1.0 0.00 0.03 0.00 94 1009.0
20260509133132 76 0 0.0 2.0 0.00 0.03 0.00 94 1009.0
20260509133032 76 0 0.0 3.0 0.00 0.03 0.00 94 1009.0
20260509132931 76 0 0.0 3.0 0.00 0.03 0.00 94 1009.2
20260509132833 76 0 0.0 3.0 0.00 0.03 0.00 94 1009.2
20260509132731 76 0 0.0 3.0 0.00 0.03 0.00 94 1009.3
20260509132632 76 0 0.0 3.0 0.00 0.03 0.00 94 1009.3
20260509132532 76 0 0.0 3.0 0.00 0.03 0.00 94 1009.4
20260509132431 76 0 0.0 3.0 0.00 0.03 0.00 94 1009.4
20260509132332 76 0 1.0 3.0 0.00 0.03 0.00 94 1009.4
20260509132231 76 0 1.0 3.0 0.00 0.03 0.00 94 1009.5
20260509132133 76 0 2.0 3.0 0.00 0.03 0.00 94 1009.4
20260509132031 76 0 2.0 3.0 0.00 0.03 0.00 94 1009.4
20260509131931 76 0 1.0 2.0 0.00 0.03 0.00 94 1009.5
20260509131832 0 0.0 0.0 0.00 0.03 0.00 1009.5
20260509131732 0 0.0 0.0 0.00 0.03 0.00 1009.4
20260509131633 0 0.0 0.0 0.00 0.03 0.00 1009.4
20260509131532 0 0.0 0.0 0.00 0.03 0.00 1009.4
20260509131433 0 0.0 0.0 0.00 0.03 0.00 1009.3
20260509131332 0 0.0 0.0 0.00 0.03 0.00 1009.3
20260509131232 0 0.0 0.0 0.00 0.03 0.00 1009.2
20260509131131 0 0.0 0.0 0.00 0.03 0.00 1009.2
20260509131032 76 0 0.0 0.0 0.00 0.03 0.00 95 1009.3
20260509130933 76 0 0.0 0.0 0.00 0.03 0.00 95 1009.2
20260509130832 76 0 0.0 0.0 0.00 0.03 0.00 95 1009.3
20260509130732 76 0 0.0 0.0 0.00 0.03 0.00 95 1009.3
20260509130632 76 0 0.0 0.0 0.00 0.03 0.00 95 1009.2
20260509130533 76 0 0.0 0.0 0.00 0.03 0.00 95 1009.2
20260509130433 76 0 0.0 0.0 0.00 0.03 0.00 95 1009.2
20260509130332 76 0 0.0 0.0 0.00 0.03 0.00 95 1009.2
20260509130233 76 0 0.0 1.0 0.00 0.03 0.00 95 1009.2
20260509130132 76 0 0.0 1.0 0.00 0.03 0.00 95 1009.1
20260509130017 76 0 0.0 1.0 0.00 0.03 0.00 95 1009.2
20260509125917 76 0 0.0 1.0 0.00 0.03 0.00 95 1009.2
20260509125803 76 0 0.0 1.0 0.00 0.03 0.00 95 1009.3
20260509125702 76 0 0.0 1.0 0.00 0.03 0.00 95 1009.2
20260509125603 76 0 0.0 1.0 0.00 0.03 0.00 95 1009.2
20260509125503 76 0 0.0 1.0 0.00 0.03 0.00 95 1009.2
20260509125403 75 0 0.0 1.0 0.00 0.03 0.00 95 1009.2
20260509125307 76 0 1.0 1.0 0.00 0.03 0.00 95 1009.2
20260509125203 0 0.0 0.0 0.00 0.03 0.00 1009.2
20260509125103 0 0.0 0.0 0.00 0.03 0.00 1009.1
20260509125004 0 0.0 0.0 0.00 0.03 0.00 1009.1
20260509124903 0 0.0 0.0 0.00 0.03 0.00 1009.1
20260509124802 0 0.0 0.0 0.00 0.03 0.00 1009.1
20260509124703 0 0.0 0.0 0.00 0.03 0.00 1009.0
20260509124603 0 0.0 0.0 0.00 0.03 0.00 1009.0
20260509124504 0 0.0 0.0 0.00 0.03 0.00 1009.0
20260509124403 0 0.0 0.0 0.00 0.03 0.00 1009.0
20260509124303 0 0.0 0.0 0.00 0.03 0.00 1008.9
20260509124203 0 0.0 0.0 0.00 0.03 0.00 1008.9
20260509124104 0 0.0 0.0 0.00 0.03 0.00 1008.9
20260509124003 0 0.0 0.0 0.00 0.03 0.00 1008.8
20260509123903 0 0.0 0.0 0.00 0.03 0.00 1008.9
20260509123803 0 0.0 0.0 0.00 0.03 0.00 1008.9
20260509123704 0 0.0 0.0 0.00 0.03 0.00 1009.0
20260509123603 0 0.0 0.0 0.00 0.03 0.00 1008.9
20260509123504 0 0.0 0.0 0.00 0.03 0.00 1009.0
20260509123404 0 0.0 0.0 0.00 0.03 0.00 1009.0
20260509123304 0 0.0 0.0 0.00 0.03 0.00 1009.0
20260509123203 0 0.0 0.0 0.00 0.03 0.00 1009.0
20260509123104 0 0.0 0.0 0.00 0.03 0.00 1009.0
20260509123003 0 0.0 0.0 0.00 0.03 0.00 1009.0
20260509122903 0 0.0 0.0 0.00 0.03 0.00 1008.9
20260509122803 0 0.0 0.0 0.00 0.03 0.00 1008.9
20260509122703 0 0.0 0.0 0.00 0.03 0.00 1008.9
20260509122603 0 0.0 0.0 0.00 0.03 0.00 1008.9
20260509122504 0 0.0 0.0 0.00 0.03 0.00 1008.9
20260509122403 0 0.0 0.0 0.00 0.03 0.00 1009.0
20260509122306 0 0.0 0.0 0.00 0.03 0.00 1008.8
20260509122203 0 0.0 0.0 0.00 0.03 0.00 1008.9
20260509122103 0 0.0 0.0 0.00 0.03 0.00 1008.9
20260509122004 0 0.0 0.0 0.00 0.03 0.00 1009.0
20260509121903 74 0 0.0 0.0 0.00 0.03 0.00 95 1009.0
20260509121803 74 0 0.0 0.0 0.00 0.03 0.00 95 1008.9
20260509121703 74 0 0.0 0.0 0.00 0.03 0.00 95 1009.0
20260509121604 74 0 0.0 0.0 0.00 0.03 0.00 95 1008.9
20260509121502 74 0 0.0 0.0 0.00 0.03 0.00 95 1008.9
20260509121403 74 0 0.0 0.0 0.00 0.03 0.00 95 1008.9
20260509121302 74 0 0.0 0.0 0.00 0.03 0.00 95 1008.9
20260509121203 74 0 0.0 0.0 0.00 0.03 0.00 95 1008.8
20260509121101 74 0 0.0 0.0 0.00 0.03 0.00 95 1008.8
20260509121003 74 0 0.0 0.0 0.00 0.03 0.00 95 1008.8
20260509120903 74 0 0.0 0.0 0.00 0.03 0.00 95 1008.8
20260509120803 74 0 0.0 0.0 0.00 0.03 0.00 95 1008.8
20260509120702 74 0 0.0 0.0 0.00 0.03 0.00 95 1008.8
20260509120603 74 0 0.0 0.0 0.00 0.03 0.00 95 1008.8
20260509120502 74 0 0.0 0.0 0.00 0.03 0.00 95 1008.7
20260509120401 74 0 0.0 0.0 0.00 0.03 0.00 95 1008.7
20260509120303 74 0 0.0 0.0 0.00 0.03 0.00 95 1008.6
20260509120201 74 0 0.0 0.0 0.00 0.03 0.00 95 1008.7
20260509120001 74 0 0.0 0.0 0.00 0.03 0.00 95 1008.6
20260509115901 74 0 0.0 0.0 0.00 0.03 0.00 95 1008.5
20260509115803 74 0 0.0 0.0 0.00 0.03 0.00 95 1008.6
20260509115702 74 0 0.0 0.0 0.00 0.03 0.00 95 1008.6
20260509115600 74 0 0.0 0.0 0.00 0.03 0.00 95 1008.5
20260509115500 74 0 0.0 0.0 0.00 0.03 0.00 95 1008.6
20260509115401 74 0 0.0 0.0 0.00 0.03 0.00 95 1008.6
20260509115300 74 0 0.0 0.0 0.00 0.03 0.00 95 1008.6
20260509115159 74 0 0.0 0.0 0.00 0.03 0.00 95 1008.6
20260509115059 74 0 0.0 0.0 0.00 0.03 0.00 95 1008.6
20260509115000 74 0 0.0 0.0 0.00 0.03 0.00 95 1008.6
20260509114859 74 0 0.0 0.0 0.00 0.03 0.00 95 1008.5
20260509114801 75 0 0.0 0.0 0.00 0.03 0.00 95 1008.5
20260509114700 74 0 0.0 0.0 0.00 0.03 0.00 95 1008.6
20260509114601 74 0 0.0 0.0 0.00 0.03 0.00 95 1008.5
20260509114500 75 0 0.0 0.0 0.00 0.03 0.00 95 1008.6
20260509114358 75 0 0.0 0.0 0.00 0.03 0.00 95 1008.6
20260509114257 75 0 0.0 0.0 0.00 0.03 0.00 95 1008.6
20260509114159 75 0 0.0 0.0 0.00 0.03 0.00 95 1008.6
20260509114059 75 0 0.0 0.0 0.00 0.03 0.00 95 1008.7
20260509113958 75 0 0.0 0.0 0.00 0.03 0.00 95 1008.7
20260509113858 75 0 0.0 0.0 0.00 0.03 0.00 95 1008.9
20260509113757 75 0 0.0 0.0 0.00 0.03 0.00 95 1008.8
20260509113658 75 0 0.0 0.0 0.00 0.03 0.00 95 1008.9
20260509113557 75 0 0.0 0.0 0.00 0.03 0.00 95 1009.0
20260509113457 75 0 0.0 0.0 0.00 0.03 0.00 95 1009.0
20260509113357 75 0 0.0 0.0 0.00 0.03 0.00 95 1009.1
20260509113258 75 0 0.0 0.0 0.00 0.03 0.00 95 1009.1
20260509113156 75 0 0.0 0.0 0.00 0.03 0.00 95 1009.2
20260509113057 75 0 0.0 0.0 0.00 0.03 0.00 95 1009.2
20260509112956 75 0 0.0 0.0 0.00 0.03 0.00 95 1009.1
20260509112857 75 0 0.0 0.0 0.00 0.03 0.00 95 1009.1
20260509112756 75 0 0.0 0.0 0.00 0.03 0.00 95 1009.1
20260509112657 75 0 0.0 0.0 0.00 0.03 0.00 95 1009.1
20260509112556 75 0 0.0 0.0 0.00 0.03 0.00 95 1009.1
20260509112456 75 0 0.0 0.0 0.00 0.03 0.00 95 1009.0
20260509112357 75 0 0.0 0.0 0.00 0.03 0.00 95 1009.0
20260509112254 75 0 0.0 0.0 0.00 0.03 0.00 95 1009.0
20260509112156 75 0 0.0 0.0 0.00 0.03 0.00 95 1009.0
20260509112055 75 0 0.0 0.0 0.00 0.03 0.00 95 1009.0
20260509111957 75 0 0.0 0.0 0.00 0.03 0.00 95 1009.0
20260509111854 75 0 0.0 0.0 0.00 0.03 0.00 95 1009.0
20260509111754 75 0 0.0 0.0 0.00 0.03 0.00 95 1008.9
20260509111633 75 0 0.0 0.0 0.00 0.03 0.00 95 1008.8
20260509111532 75 0 0.0 0.0 0.00 0.03 0.00 95 1008.8
20260509111405 75 0 0.0 0.0 0.00 0.03 0.00 95 1008.8
20260509111303 75 0 0.0 0.0 0.00 0.03 0.00 95 1008.8
20260509111205 75 0 0.0 0.0 0.00 0.03 0.00 95 1008.8
20260509111102 75 0 0.0 0.0 0.00 0.03 0.00 95 1008.7
20260509111003 75 0 0.0 0.0 0.00 0.03 0.00 95 1008.8
20260509110904 75 0 0.0 0.0 0.00 0.03 0.00 95 1008.8
20260509110803 75 0 0.0 0.0 0.00 0.03 0.00 95 1008.8
20260509110703 75 0 0.0 0.0 0.00 0.03 0.00 95 1008.8
20260509110603 75 0 0.0 0.0 0.00 0.03 0.00 95 1008.8
20260509110504 75 0 0.0 0.0 0.00 0.03 0.00 95 1008.7
20260509110403 75 0 0.0 0.0 0.00 0.03 0.00 95 1008.7
20260509110303 75 0 0.0 0.0 0.00 0.03 0.00 95 1008.7
20260509110204 75 0 0.0 0.0 0.00 0.03 0.00 95 1008.8
20260509110103 75 0 0.0 0.0 0.00 0.03 0.00 95 1008.7
20260509110002 75 0 0.0 0.0 0.00 0.03 0.00 95 1008.6
20260509105903 75 0 0.0 0.0 0.00 0.03 0.00 95 1008.6
20260509105803 75 0 0.0 0.0 0.00 0.03 0.00 95 1008.6
20260509105704 75 0 0.0 0.0 0.00 0.03 0.00 95 1008.5
20260509105604 75 0 0.0 0.0 0.00 0.03 0.00 95 1008.4
20260509105458 75 0 0.0 0.0 0.00 0.03 0.00 95 1008.4
20260509105355 75 0 0.0 0.0 0.00 0.03 0.00 95 1008.4
20260509105251 0 0.0 0.0 0.00 0.03 0.00 1008.4
20260509105152 0 0.0 0.0 0.00 0.03 0.00 1008.3
20260509105051 0 0.0 0.0 0.00 0.03 0.00 1008.3
20260509104950 0 0.0 0.0 0.00 0.03 0.00 1008.3
20260509104851 0 0.0 0.0 0.00 0.03 0.00 1008.3
20260509104749 0 0.0 0.0 0.00 0.03 0.00 1008.2
20260509104651 0 0.0 0.0 0.00 0.03 0.00 1008.2
20260509104548 0 0.0 0.0 0.00 0.03 0.00 1008.2
20260509104448 0 0.0 0.0 0.00 0.03 0.00 1008.1
20260509104348 0 0.0 0.0 0.00 0.03 0.00 1008.1
20260509104249 0 0.0 0.0 0.00 0.03 0.00 1008.1
20260509104148 0 0.0 0.0 0.00 0.03 0.00 1008.0
20260509104046 0 0.0 0.0 0.00 0.03 0.00 1008.1
20260509103946 0 0.0 0.0 0.00 0.03 0.00 1008.1
20260509103846 0 0.0 0.0 0.00 0.03 0.00 1008.1
20260509103746 0 0.0 0.0 0.00 0.03 0.00 1008.1
20260509103646 0 0.0 0.0 0.00 0.03 0.00 1008.0
20260509103546 0 0.0 0.0 0.00 0.03 0.00 1008.1
20260509103444 0 0.0 0.0 0.00 0.03 0.00 1008.1
20260509103345 0 0.0 0.0 0.00 0.03 0.00 1008.3
20260509103244 0 0.0 0.0 0.00 0.03 0.00 1008.3
20260509103145 0 0.0 0.0 0.00 0.03 0.00 1008.3
20260509103042 0 0.0 0.0 0.00 0.03 0.00 1008.3
20260509102943 0 0.0 0.0 0.00 0.03 0.00 1008.3
20260509102842 0 0.0 0.0 0.00 0.03 0.00 1008.3
20260509102742 0 0.0 0.0 0.00 0.03 0.00 1008.3
20260509102642 0 0.0 0.0 0.00 0.03 0.00 1008.3
20260509102540 0 0.0 0.0 0.00 0.03 0.00 1008.2
20260509102442 0 0.0 0.0 0.00 0.03 0.00 1008.2
20260509102341 0 0.0 0.0 0.00 0.03 0.00 1008.2
20260509102240 0 0.0 0.0 0.00 0.03 0.00 1008.1
20260509102141 0 0.0 0.0 0.00 0.03 0.00 1008.0
20260509102039 0 0.0 0.0 0.00 0.03 0.00 1008.0
20260509101938 0 0.0 0.0 0.00 0.03 0.00 1008.1
20260509101839 0 0.0 0.0 0.00 0.03 0.00 1008.0
20260509101738 0 0.0 0.0 0.00 0.03 0.00 1008.0
20260509101639 0 0.0 0.0 0.00 0.03 0.00 1008.1
20260509101537 0 0.0 0.0 0.00 0.03 0.00 1008.1
20260509101438 0 0.0 0.0 0.00 0.03 0.00 1008.1
20260509101337 0 0.0 0.0 0.00 0.03 0.00 1008.2
20260509101231 0 0.0 0.0 0.00 0.03 0.00 1008.1
20260509101132 0 0.0 0.0 0.00 0.03 0.00 1008.1
20260509101032 0 0.0 0.0 0.00 0.03 0.00 1008.1
20260509100932 0 0.0 0.0 0.00 0.03 0.00 1008.1
20260509100831 0 0.0 0.0 0.00 0.03 0.00 1008.1
20260509100732 0 0.0 0.0 0.00 0.03 0.00 1008.2
20260509100632 0 0.0 0.0 0.00 0.03 0.00 1008.2
20260509100532 0 0.0 0.0 0.00 0.03 0.00 1008.2
20260509100432 0 0.0 0.0 0.00 0.03 0.00 1008.2
20260509100332 0 0.0 0.0 0.00 0.03 0.00 1008.1
20260509100233 0 0.0 0.0 0.00 0.03 0.00 1008.1
20260509100131 0 0.0 0.0 0.00 0.03 0.00 1008.0
20260509100032 0 0.0 0.0 0.00 0.03 0.00 1008.1
20260509095931 0 0.0 0.0 0.00 0.03 0.00 1008.2
20260509095831 0 0.0 0.0 0.00 0.03 0.00 1008.1
20260509095731 0 0.0 0.0 0.00 0.03 0.00 1008.1
20260509095631 0 0.0 0.0 0.00 0.03 0.00 1008.1
20260509095530 0 0.0 0.0 0.00 0.03 0.00 1008.0
20260509095429 0 0.0 0.0 0.00 0.03 0.00 1008.0
20260509095329 0 0.0 0.0 0.00 0.03 0.00 1008.0
20260509095229 0 0.0 0.0 0.00 0.03 0.00 1008.0
20260509095129 0 0.0 0.0 0.00 0.03 0.00 1008.0
20260509095028 0 0.0 0.0 0.00 0.03 0.00 1008.0
20260509094927 0 0.0 0.0 0.00 0.03 0.00 1008.0
20260509094828 0 0.0 0.0 0.00 0.03 0.00 1008.1
20260509094727 0 0.0 0.0 0.00 0.03 0.00 1008.2
20260509094629 0 0.0 0.0 0.00 0.03 0.00 1008.1
20260509094525 0 0.0 0.0 0.00 0.03 0.00 1008.2
20260509094425 0 0.0 0.0 0.00 0.03 0.00 1008.1
20260509094325 0 0.0 0.0 0.00 0.03 0.00 1008.1
20260509094226 0 0.0 0.0 0.00 0.03 0.00 1008.0
20260509094125 0 0.0 0.0 0.00 0.03 0.00 1007.9
20260509094023 0 0.0 0.0 0.00 0.03 0.00 1007.9
20260509093925 0 0.0 0.0 0.00 0.03 0.00 1007.9
20260509093824 0 0.0 0.0 0.00 0.03 0.00 1007.8
20260509093723 0 0.0 0.0 0.00 0.03 0.00 1007.8
20260509093624 0 0.0 0.0 0.00 0.03 0.00 1007.9
20260509093522 0 0.0 0.0 0.00 0.03 0.00 1007.9
20260509093422 0 0.0 0.0 0.00 0.03 0.00 1007.9
20260509093322 0 0.0 0.0 0.00 0.03 0.00 1008.0
20260509093222 0 0.0 0.0 0.00 0.03 0.00 1008.0
20260509093123 0 0.0 0.0 0.00 0.03 0.00 1008.0
20260509093020 0 0.0 0.0 0.00 0.03 0.00 1008.0
20260509092920 75 0 0.0 0.0 0.00 0.03 0.00 95 1008.1
20260509092820 75 0 0.0 0.0 0.00 0.03 0.00 95 1008.1
20260509092720 75 0 0.0 0.0 0.00 0.03 0.00 95 1008.1
20260509092620 75 0 0.0 0.0 0.00 0.03 0.00 95 1008.1
20260509092504 75 0 0.0 0.0 0.00 0.03 0.00 95 1007.9
20260509092403 75 0 0.0 0.0 0.00 0.03 0.00 95 1007.9
20260509092305 75 0 0.0 0.0 0.00 0.03 0.00 95 1007.9
20260509092203 75 0 0.0 0.0 0.00 0.03 0.00 95 1008.0
20260509092103 75 0 0.0 0.0 0.00 0.03 0.00 95 1008.0
20260509092003 75 0 0.0 0.0 0.00 0.03 0.00 95 1008.1
20260509091902 75 0 0.0 0.0 0.00 0.03 0.00 95 1008.2
20260509091804 75 0 0.0 0.0 0.00 0.03 0.00 95 1008.2
20260509091704 75 0 0.0 0.0 0.00 0.03 0.00 95 1008.1
20260509091602 75 0 0.0 0.0 0.00 0.03 0.00 95 1008.1
20260509091503 75 0 0.0 0.0 0.00 0.03 0.00 95 1008.1
20260509091402 75 0 0.0 0.0 0.00 0.03 0.00 95 1008.2
20260509091302 0 0 0.0 0.0 0.00 0.03 0.00 1008.2
20260509091204 0 0.0 0.0 0.00 0.03 0.00 1008.2
20260509091103 0 0.0 0.0 0.00 0.03 0.00 1008.2
20260509091004 0 0.0 0.0 0.00 0.03 0.00 1008.2
20260509090903 0 0.0 0.0 0.00 0.03 0.00 1008.3
20260509090803 0 0.0 0.0 0.00 0.03 0.00 1008.3
20260509090702 0 0.0 0.0 0.00 0.03 0.00 1008.3
20260509090603 0 0.0 0.0 0.00 0.03 0.00 1008.2
20260509090503 0 0.0 0.0 0.00 0.03 0.00 1008.2
20260509090403 75 0 0.0 0.0 0.00 0.03 0.00 94 1008.2
20260509090303 75 0 0.0 0.0 0.00 0.03 0.00 94 1008.1
20260509090203 75 0 0.0 0.0 0.00 0.03 0.00 94 1008.2
20260509090004 75 0 0.0 0.0 0.00 0.03 0.00 94 1008.2
20260509085903 75 0 0.0 0.0 0.00 0.03 0.00 94 1008.2
20260509085803 75 0 0.0 0.0 0.00 0.03 0.00 94 1008.2
20260509085703 75 0 0.0 0.0 0.00 0.03 0.00 94 1008.2
20260509085603 75 0 0.0 0.0 0.00 0.03 0.00 94 1008.2
20260509085502 75 0 0.0 0.0 0.00 0.03 0.00 94 1008.2
20260509085403 75 0 0.0 0.0 0.00 0.03 0.00 94 1008.3
20260509085306 75 0 0.0 0.0 0.00 0.03 0.00 94 1008.3
20260509085203 75 0 0.0 0.0 0.00 0.03 0.00 94 1008.2
20260509085104 75 0 0.0 0.0 0.00 0.03 0.00 94 1008.2
20260509085003 75 0 0.0 0.0 0.00 0.03 0.00 94 1008.1
20260509084903 75 0 0.0 0.0 0.00 0.03 0.00 94 1008.0
20260509084803 75 0 0.0 0.0 0.00 0.03 0.00 94 1008.0
20260509084703 75 0 0.0 0.0 0.00 0.03 0.00 94 1008.0
20260509084603 75 0 0.0 0.0 0.00 0.03 0.00 94 1007.9
20260509084504 75 0 0.0 0.0 0.00 0.03 0.00 94 1007.9
20260509084403 75 0 0.0 0.0 0.00 0.03 0.00 94 1008.1
20260509084303 75 0 0.0 0.0 0.00 0.03 0.00 94 1008.0
20260509084203 75 0 0.0 0.0 0.00 0.03 0.00 94 1008.0
20260509084103 75 0 0.0 0.0 0.00 0.03 0.00 94 1008.0
20260509084003 75 0 0.0 0.0 0.00 0.03 0.00 94 1008.0
20260509083903 75 0 0.0 0.0 0.00 0.03 0.00 94 1008.0
20260509083803 75 0 0.0 0.0 0.00 0.03 0.00 94 1007.9
20260509083704 75 0 0.0 0.0 0.00 0.03 0.00 94 1007.9
20260509083603 75 0 0.0 0.0 0.00 0.03 0.00 94 1007.9
20260509083504 75 0 0.0 0.0 0.00 0.03 0.00 94 1007.9
20260509083403 75 0 0.0 0.0 0.00 0.03 0.00 94 1007.9
20260509083303 0 0.0 0.0 0.00 0.03 0.00 1007.9
20260509083203 0 0.0 0.0 0.00 0.03 0.00 1007.9
20260509083103 0 0.0 0.0 0.00 0.03 0.00 1007.9
20260509083004 0 0.0 0.0 0.00 0.03 0.00 1007.8
20260509082903 0 0.0 0.0 0.00 0.03 0.00 1007.8
20260509082804 0 0.0 0.0 0.00 0.03 0.00 1007.9
20260509082703 0 0.0 0.0 0.00 0.03 0.00 1007.8
20260509082603 0 0.0 0.0 0.00 0.03 0.00 1007.8
20260509082503 0 0.0 0.0 0.00 0.03 0.00 1007.9
20260509082403 0 0.0 0.0 0.00 0.03 0.00 1007.9
20260509082306 0 0.0 0.0 0.00 0.03 0.00 1008.0
20260509082203 0 0.0 0.0 0.00 0.03 0.00 1008.1
20260509082104 0 0.0 0.0 0.00 0.03 0.00 1008.1
20260509082004 0 0.0 0.0 0.00 0.03 0.00 1008.2
20260509081903 0 0.0 0.0 0.00 0.03 0.00 1008.2
20260509081803 0 0.0 0.0 0.00 0.03 0.00 1008.3
20260509081704 0 0.0 0.0 0.00 0.03 0.00 1008.1
20260509081603 0 0.0 0.0 0.00 0.03 0.00 1008.3
20260509081502 0 0.0 0.0 0.00 0.03 0.00 1008.3
20260509081403 0 0.0 0.0 0.00 0.03 0.00 1008.3
20260509081303 0 0.0 0.0 0.00 0.03 0.00 1008.3
20260509081203 0 0.0 0.0 0.00 0.03 0.00 1008.2
20260509081101 0 0.0 0.0 0.00 0.03 0.00 1008.2
20260509081001 0 0.0 0.0 0.00 0.03 0.00 1008.1
20260509080901 0 0.0 0.0 0.00 0.03 0.00 1008.2
20260509080800 0 0.0 0.0 0.00 0.03 0.00 1008.1
20260509080702 0 0.0 0.0 0.00 0.03 0.00 1008.0
20260509080600 0 0.0 0.0 0.00 0.03 0.00 1007.9
20260509080459 0 0.0 0.0 0.00 0.03 0.00 1007.9
20260509080400 0 0.0 0.0 0.00 0.03 0.00 1007.9
20260509080300 0 0.0 0.0 0.00 0.03 0.00 1007.9
20260509080200 0 0.0 0.0 0.00 0.03 0.00 1007.9
20260509080057 0 0.0 0.0 0.00 0.03 0.00 1007.9
20260509075957 0 0.0 0.0 0.00 0.03 0.00 1008.0
20260509075858 0 0.0 0.0 0.00 0.03 0.00 1008.0
20260509075757 0 0.0 0.0 0.00 0.03 0.00 1008.0
20260509075632 0 0.0 0.0 0.00 0.03 0.00 1008.0
20260509075531 0 0.0 0.0 0.00 0.03 0.00 1008.1
20260509075432 0 0.0 0.0 0.00 0.03 0.00 1008.1
20260509075332 0 0.0 0.0 0.00 0.03 0.00 1008.0
20260509075232 0 0.0 0.0 0.00 0.03 0.00 1008.1
20260509075133 0 0.0 0.0 0.00 0.03 0.00 1008.1
20260509075005 0 0.0 0.0 0.00 0.03 0.00 1008.1
20260509074903 0 0.0 0.0 0.00 0.03 0.00 1008.1
20260509074803 0 0.0 0.0 0.00 0.03 0.00 1008.1
20260509074654 0 0.0 0.0 0.00 0.03 0.00 1008.0
20260509074551 0 0.0 0.0 0.00 0.03 0.00 1008.0
20260509074451 0 0.0 0.0 0.00 0.03 0.00 1008.0
20260509074352 0 0.0 0.0 0.00 0.03 0.00 1008.0
20260509074252 0 0.0 0.0 0.00 0.03 0.00 1008.0
20260509074151 0 0.0 0.0 0.00 0.03 0.00 1008.1
20260509074050 0 0.0 0.0 0.00 0.03 0.00 1008.0
20260509073951 0 0.0 0.0 0.00 0.03 0.00 1008.1
20260509073850 0 0.0 0.0 0.00 0.03 0.00 1008.2
20260509073751 0 0.0 0.0 0.00 0.03 0.00 1008.3
20260509073650 0 0.0 0.0 0.00 0.03 0.00 1008.3
20260509073548 0 0.0 0.0 0.00 0.03 0.00 1008.3
20260509073448 0 0.0 0.0 0.00 0.03 0.00 1008.3
20260509073348 0 0.0 0.0 0.00 0.03 0.00 1008.4
20260509073249 0 0.0 0.0 0.00 0.03 0.00 1008.4
20260509073148 0 0.0 0.0 0.00 0.03 0.00 1008.5
20260509073046 0 0.0 0.0 0.00 0.03 0.00 1008.5
20260509072947 76 0 0.0 0.0 0.00 0.03 0.00 94 1008.5
20260509072846 76 0 0.0 0.0 0.00 0.03 0.00 94 1008.5
20260509072746 76 0 0.0 0.0 0.00 0.03 0.00 94 1008.5
20260509072646 76 0 0.0 1.0 0.00 0.03 0.00 94 1008.4
20260509072545 76 0 0.0 1.0 0.00 0.03 0.00 94 1008.4
20260509072344 76 0 0.0 1.0 0.00 0.03 0.00 94 1008.4
20260509072244 76 0 0.0 1.0 0.00 0.03 0.00 94 1008.4
20260509072144 76 0 0.0 1.0 0.00 0.03 0.00 94 1008.5
20260509072045 76 0 0.0 1.0 0.00 0.03 0.00 94 1008.5
20260509071946 76 0 0.0 1.0 0.00 0.03 0.00 94 1008.5
20260509071845 76 0 0.0 1.0 0.00 0.03 0.00 94 1008.5
20260509071744 76 0 0.0 1.0 0.00 0.03 0.00 94 1008.5
20260509071643 76 0 0.0 1.0 0.00 0.03 0.00 94 1008.5
20260509071544 76 0 1.0 1.0 0.00 0.03 0.00 93 1008.6
20260509071445 0 0.0 0.0 0.00 0.03 0.00 1008.6
20260509071344 0 0.0 0.0 0.00 0.03 0.00 1008.5
20260509071243 0 0.0 0.0 0.00 0.03 0.00 1008.6
20260509071142 0 0.0 0.0 0.00 0.03 0.00 1008.6
20260509071042 0 0.0 0.0 0.00 0.03 0.00 1008.6
20260509070942 0 0.0 0.0 0.00 0.03 0.00 1008.6
20260509070842 0 0.0 0.0 0.00 0.03 0.00 1008.7
20260509070741 0 0.0 0.0 0.00 0.03 0.00 1008.6
20260509070641 0 0.0 0.0 0.00 0.03 0.00 1008.6
20260509070540 0 0.0 0.0 0.00 0.03 0.00 1008.6
20260509070440 0 0.0 0.0 0.00 0.03 0.00 1008.6
20260509070341 0 0.0 0.0 0.00 0.03 0.00 1008.6
20260509070231 0 0.0 0.0 0.00 0.03 0.00 1008.6
20260509070104 0 0.0 0.0 0.00 0.03 0.00 1008.6
20260509070003 0 0.0 0.0 0.00 0.03 0.00 1008.6
20260509065904 0 0.0 0.0 0.00 0.03 0.00 1008.6
20260509065803 0 0.0 0.0 0.00 0.03 0.00 1008.6
20260509065703 0 0.0 0.0 0.00 0.03 0.00 1008.7
20260509065604 0 0.0 0.0 0.00 0.03 0.00 1008.6
20260509065503 0 0.0 0.0 0.00 0.03 0.00 1008.7
20260509065404 0 0.0 0.0 0.00 0.03 0.00 1008.6
20260509065306 0 0.0 0.0 0.00 0.03 0.00 1008.5
20260509065202 0 0.0 0.0 0.00 0.03 0.00 1008.6
20260509065103 0 0.0 0.0 0.00 0.03 0.00 1008.6
20260509065002 0 0.0 0.0 0.00 0.03 0.00 1008.6
20260509064903 0 0.0 0.0 0.00 0.03 0.00 1008.6
20260509064803 0 0.0 0.0 0.00 0.03 0.00 1008.5
20260509064704 0 0.0 0.0 0.00 0.03 0.00 1008.6
20260509064604 0 0.0 0.0 0.00 0.03 0.00 1008.6
20260509064506 0 0.0 0.0 0.00 0.03 0.00 1008.6
20260509064404 0 0.0 0.0 0.00 0.03 0.00 1008.6
20260509064303 0 0.0 0.0 0.00 0.03 0.00 1008.5
20260509064204 0 0.0 0.0 0.00 0.03 0.00 1008.5
20260509064103 0 0.0 0.0 0.00 0.03 0.00 1008.5
20260509064004 0 0.0 0.0 0.00 0.03 0.00 1008.5
20260509063904 0 0.0 0.0 0.00 0.03 0.00 1008.5
20260509063805 0 0.0 0.0 0.00 0.03 0.00 1008.4
20260509063704 0 0.0 0.0 0.00 0.03 0.00 1008.5
20260509063604 0 0.0 0.0 0.00 0.03 0.00 1008.5
20260509063431 0 0.0 0.0 0.00 0.03 0.00 1008.6
20260509063331 0 0.0 0.0 0.00 0.03 0.00 1008.6
20260509063232 0 0.0 0.0 0.00 0.03 0.00 1008.6
20260509063131 0 0.0 0.0 0.00 0.03 0.00 1008.6
20260509063030 0 0.0 0.0 0.00 0.03 0.00 1008.6
20260509062931 0 0.0 0.0 0.00 0.03 0.00 1008.7
20260509062831 0 0.0 0.0 0.00 0.03 0.00 1008.7
20260509062732 0 0.0 0.0 0.00 0.03 0.00 1008.6
20260509062633 0 0.0 0.0 0.00 0.03 0.00 1008.6
20260509062531 75 0 0.0 0.0 0.00 0.03 0.00 93 1008.6
20260509062433 75 0 0.0 0.0 0.00 0.03 0.00 93 1008.6
20260509062332 75 0 0.0 0.0 0.00 0.03 0.00 93 1008.6
20260509062233 75 0 0.0 0.0 0.00 0.03 0.00 93 1008.6
20260509062132 75 0 0.0 0.0 0.00 0.03 0.00 93 1008.6
20260509062032 75 0 0.0 0.0 0.00 0.03 0.00 93 1008.6
20260509061932 75 0 0.0 0.0 0.00 0.03 0.00 93 1008.6
20260509061832 75 0 0.0 0.0 0.00 0.03 0.00 93 1008.6
20260509061731 75 0 0.0 0.0 0.00 0.03 0.00 93 1008.6
20260509061626 76 0 0.0 0.0 0.00 0.03 0.00 93 1008.6
20260509061525 0 0.0 0.0 0.00 0.03 0.00 1008.6
20260509061422 0 0.0 0.0 0.00 0.03 0.00 1008.6
20260509061322 0 0.0 0.0 0.00 0.03 0.00 1008.6
20260509061223 0 0.0 0.0 0.00 0.03 0.00 1008.7
20260509061123 0 0.0 0.0 0.00 0.03 0.00 1008.7
20260509061022 0 0.0 0.0 0.00 0.03 0.00 1008.6
20260509060921 0 0.0 0.0 0.00 0.03 0.00 1008.6
20260509060820 0 0.0 0.0 0.00 0.03 0.00 1008.7
20260509060721 0 0.0 0.0 0.00 0.03 0.00 1008.7
20260509060621 0 0.0 0.0 0.00 0.03 0.00 1008.7
20260509060520 0 0.0 0.0 0.00 0.03 0.00 1008.7
20260509060420 0 0.0 0.0 0.00 0.03 0.00 1008.7
20260509060319 75 0 0.0 0.0 0.00 0.03 0.00 93 1008.7
20260509060219 75 0 0.0 0.0 0.00 0.03 0.00 93 1008.7
20260509060118 75 0 0.0 0.0 0.00 0.03 0.00 93 1008.7
20260509060020 75 0 0.0 0.0 0.00 0.03 0.00 93 1008.7
20260509055917 75 0 0.0 0.0 0.00 0.03 0.00 93 1008.8
20260509055817 75 0 0.0 0.0 0.00 0.03 0.00 93 1008.7
20260509055717 75 0 0.0 0.0 0.00 0.03 0.00 93 1008.8
20260509055617 75 0 0.0 0.0 0.00 0.03 0.00 93 1008.8
20260509055517 75 0 0.0 0.0 0.00 0.03 0.00 93 1008.8
20260509055418 75 0 0.0 0.0 0.00 0.03 0.00 93 1008.8
20260509055315 75 0 0.0 0.0 0.00 0.03 0.00 93 1008.8
20260509055217 75 0 0.0 0.0 0.00 0.03 0.00 93 1008.8
20260509055117 75 0 0.0 0.0 0.00 0.03 0.00 93 1008.8
20260509055016 75 0 0.0 0.0 0.00 0.03 0.00 93 1008.8
20260509054917 75 0 0.0 0.0 0.00 0.03 0.00 93 1008.8
20260509054817 75 0 0.0 0.0 0.00 0.03 0.00 93 1008.8
20260509054717 75 0 0.0 0.0 0.00 0.03 0.00 93 1008.8
20260509054616 75 0 0.0 0.0 0.00 0.03 0.00 93 1008.8
20260509054517 75 0 0.0 0.0 0.00 0.03 0.00 93 1008.8
20260509054417 75 0 0.0 0.0 0.00 0.03 0.00 93 1008.8
20260509054315 75 0 0.0 0.0 0.00 0.03 0.00 93 1008.8
20260509054215 75 0 0.0 0.0 0.00 0.03 0.00 93 1008.8
20260509054116 75 0 0.0 0.0 0.00 0.03 0.00 93 1008.9
20260509054015 75 0 0.0 0.0 0.00 0.03 0.00 93 1008.9
20260509053916 75 0 0.0 0.0 0.00 0.03 0.00 93 1008.8
20260509053815 75 0 0.0 0.0 0.00 0.03 0.00 93 1008.8
20260509053715 75 0 0.0 0.0 0.00 0.03 0.00 93 1008.8
20260509053615 75 0 0.0 0.0 0.00 0.03 0.00 93 1008.8
20260509053516 75 0 0.0 0.0 0.00 0.03 0.00 93 1008.8
20260509053415 75 0 0.0 0.0 0.00 0.03 0.00 93 1008.9
20260509053314 75 0 0.0 0.0 0.00 0.03 0.00 93 1008.9
20260509053213 75 0 0.0 0.0 0.00 0.03 0.00 93 1008.9
20260509053114 75 0 0.0 0.0 0.00 0.03 0.00 93 1008.9
20260509053015 0 0.0 0.0 0.00 0.03 0.00 1008.9
20260509052915 0 0.0 0.0 0.00 0.03 0.00 1008.9
20260509052813 0 0.0 0.0 0.00 0.03 0.00 1008.9
20260509052713 0 0.0 0.0 0.00 0.03 0.00 1008.9
20260509052613 0 0.0 0.0 0.00 0.03 0.00 1008.9
20260509052514 0 0.0 0.0 0.00 0.03 0.00 1008.9
20260509052413 0 0.0 0.0 0.00 0.03 0.00 1009.0
20260509052312 0 0.0 0.0 0.00 0.03 0.00 1009.0
20260509052211 0 0.0 0.0 0.00 0.03 0.00 1008.9
20260509052111 0 0.0 0.0 0.00 0.03 0.00 1009.0
20260509052011 0 0.0 0.0 0.00 0.03 0.00 1008.9
20260509051911 0 0.0 0.0 0.00 0.03 0.00 1009.0
20260509051810 0 0.0 0.0 0.00 0.03 0.00 1009.0
20260509051710 0 0.0 0.0 0.00 0.03 0.00 1009.0
20260509051609 0 0.0 0.0 0.00 0.03 0.00 1009.0
20260509051509 0 0.0 0.0 0.00 0.03 0.00 1008.9
20260509051410 0 0.0 0.0 0.00 0.03 0.00 1008.9
20260509051306 0 0.0 0.0 0.00 0.03 0.00 1008.9
20260509051206 0 0.0 0.0 0.00 0.03 0.00 1008.9
20260509051106 0 0.0 0.0 0.00 0.03 0.00 1008.9
20260509051006 0 0.0 0.0 0.00 0.03 0.00 1008.9
20260509050906 0 0.0 0.0 0.00 0.03 0.00 1008.9
20260509050806 0 0.0 0.0 0.00 0.03 0.00 1008.8
20260509050705 74 0 0.0 0.0 0.00 0.03 0.00 93 1008.9
20260509050604 74 0 0.0 0.0 0.00 0.03 0.00 93 1008.9
20260509050504 74 0 0.0 0.0 0.00 0.03 0.00 93 1008.8
20260509050405 74 0 0.0 0.0 0.00 0.03 0.00 93 1008.9
20260509050303 74 0 0.0 0.0 0.00 0.03 0.00 93 1008.9
20260509050203 74 0 0.0 0.0 0.00 0.03 0.00 93 1009.0
20260509050004 74 0 0.0 0.0 0.00 0.03 0.00 93 1009.0
20260509045903 74 0 0.0 0.0 0.00 0.03 0.03 93 1009.0
20260509045804 74 0 0.0 0.0 0.00 0.03 0.03 93 1008.9
20260509045704 74 0 0.0 0.0 0.00 0.03 0.03 93 1009.1
20260509045603 74 0 0.0 0.0 0.00 0.03 0.03 93 1009.1
20260509045503 74 0 0.0 0.0 0.00 0.03 0.03 93 1009.2
20260509045403 74 0 0.0 0.0 0.00 0.03 0.03 93 1009.3
20260509045306 74 0 0.0 0.0 0.00 0.03 0.03 93 1009.2
20260509045203 74 0 0.0 0.0 0.00 0.03 0.03 92 1009.2
20260509045103 0 0.0 0.0 0.00 0.03 0.03 1009.2
20260509045004 0 0.0 0.0 0.00 0.03 0.03 1009.2
20260509044902 0 0.0 0.0 0.00 0.03 0.03 1009.2
20260509044803 0 0.0 0.0 0.00 0.03 0.03 1009.3
20260509044702 0 0.0 0.0 0.00 0.03 0.03 1009.2
20260509044604 0 0.0 0.0 0.00 0.03 0.03 1009.3
20260509044502 0 0.0 0.0 0.00 0.03 0.03 1009.3
20260509044400 0 0.0 0.0 0.00 0.03 0.03 1009.2
20260509044300 0 0.0 0.0 0.00 0.03 0.03 1009.1
20260509044200 0 0.0 0.0 0.00 0.03 0.03 1009.2
20260509044100 0 0.0 0.0 0.00 0.03 0.03 1009.1
20260509044000 0 0.0 0.0 0.00 0.03 0.03 1009.2
20260509043859 0 0.0 0.0 0.00 0.03 0.03 1009.2
20260509043758 0 0.0 0.0 0.00 0.03 0.03 1009.2
20260509043659 0 0.0 0.0 0.00 0.03 0.03 1009.2
20260509043558 0 0.0 0.0 0.00 0.03 0.03 1009.2
20260509043459 0 0.0 0.0 0.00 0.03 0.03 1009.2
20260509043357 0 0.0 0.0 0.00 0.03 0.03 1009.1
20260509043257 0 0.0 0.0 0.00 0.03 0.03 1009.1
20260509043156 0 0.0 0.0 0.00 0.03 0.03 1009.1
20260509043057 0 0.0 0.0 0.00 0.03 0.03 1009.1
20260509042957 0 0.0 0.0 0.00 0.03 0.03 1009.0
20260509042855 0 0.0 0.0 0.00 0.03 0.03 1009.1
20260509042754 0 0.0 0.0 0.00 0.03 0.03 1009.1
20260509042655 0 0.0 0.0 0.00 0.03 0.03 1009.1
20260509042555 0 0.0 0.0 0.00 0.03 0.03 1009.1
20260509042454 0 0.0 0.0 0.00 0.03 0.03 1009.1
20260509042353 0 0.0 0.0 0.00 0.03 0.03 1009.1
20260509042254 0 0.0 0.0 0.00 0.03 0.03 1009.1
20260509042153 0 0.0 0.0 0.00 0.03 0.03 1009.1
20260509042054 0 0.0 0.0 0.00 0.03 0.03 1009.1
20260509041952 0 0.0 0.0 0.00 0.03 0.03 1009.2
20260509041852 0 0.0 0.0 0.00 0.03 0.03 1009.1
20260509041751 0 0.0 0.0 0.00 0.03 0.03 1009.1
20260509041651 0 0.0 0.0 0.00 0.03 0.03 1009.2
20260509041552 0 0.0 0.0 0.00 0.03 0.03 1009.1
20260509041451 0 0.0 0.0 0.00 0.03 0.03 1009.1
20260509041349 0 0.0 0.0 0.00 0.03 0.03 1009.2
20260509041250 0 0.0 0.0 0.00 0.03 0.03 1009.1
20260509041149 0 0.0 0.0 0.00 0.03 0.03 1009.1
20260509041049 0 0.0 0.0 0.00 0.03 0.03 1009.1
20260509040950 0 0.0 0.0 0.00 0.03 0.03 1009.1
20260509040848 0 0.0 0.0 0.00 0.03 0.03 1009.0
20260509040748 0 0.0 0.0 0.00 0.03 0.03 1009.0
20260509040648 0 0.0 0.0 0.00 0.03 0.03 1009.0
20260509040548 0 0.0 0.0 0.00 0.03 0.03 1009.0
20260509040448 0 0.0 0.0 0.00 0.03 0.03 1009.0
20260509040346 0 0.0 0.0 0.00 0.03 0.03 1008.9
20260509040245 0 0.0 0.0 0.00 0.03 0.03 1008.8
20260509040146 0 0.0 0.0 0.00 0.03 0.03 1008.8
20260509040046 0 0.0 0.0 0.00 0.03 0.03 1008.7
20260509035945 0 0.0 0.0 0.00 0.03 0.03 1008.7
20260509035844 0 0.0 0.0 0.00 0.03 0.03 1008.7
20260509035745 0 0.0 0.0 0.00 0.03 0.03 1008.6
20260509035644 0 0.0 0.0 0.00 0.03 0.03 1008.7
20260509035546 0 0.0 0.0 0.00 0.03 0.03 1008.7
20260509035444 0 0.0 0.0 0.00 0.03 0.03 1008.7
20260509035342 0 0.0 0.0 0.00 0.03 0.03 1008.7
20260509035242 0 0.0 0.0 0.00 0.03 0.03 1008.7
20260509035142 0 0.0 0.0 0.00 0.03 0.03 1008.7
20260509035042 0 0.0 0.0 0.00 0.03 0.03 1008.7
20260509034942 0 0.0 0.0 0.00 0.03 0.03 1008.6
20260509034842 0 0.0 0.0 0.00 0.03 0.03 1008.6
20260509034740 0 0.0 0.0 0.00 0.03 0.03 1008.7
20260509034640 0 0.0 0.0 0.00 0.03 0.03 1008.7
20260509034541 0 0.0 0.0 0.00 0.03 0.03 1008.8
20260509034440 0 0.0 0.0 0.00 0.03 0.03 1008.8
20260509034338 0 0.0 0.0 0.00 0.03 0.03 1008.9
20260509034239 0 0.0 0.0 0.00 0.03 0.03 1008.8
20260509034139 0 0.0 0.0 0.00 0.03 0.03 1008.8
20260509034039 0 0.0 0.0 0.00 0.03 0.03 1008.7
20260509033938 0 0.0 0.0 0.00 0.03 0.03 1008.6
20260509033835 0 0.0 0.0 0.00 0.03 0.03 1008.7
20260509033737 0 0.0 0.0 0.00 0.03 0.03 1008.6
20260509033632 0 0.0 0.0 0.00 0.03 0.03 1008.5
20260509033531 0 0.0 0.0 0.00 0.03 0.03 1008.6
20260509033432 0 0.0 0.0 0.00 0.03 0.03 1008.6
20260509033332 0 0.0 0.0 0.00 0.03 0.03 1008.6
20260509033232 0 0.0 0.0 0.00 0.03 0.03 1008.7
20260509033132 0 0.0 0.0 0.00 0.03 0.03 1008.7
20260509033032 0 0.0 0.0 0.00 0.03 0.03 1008.7
20260509032932 0 0.0 0.0 0.00 0.03 0.03 1008.7
20260509032832 0 0.0 0.0 0.00 0.03 0.03 1008.7
20260509032732 0 0.0 0.0 0.00 0.03 0.03 1008.7
20260509032632 0 0.0 0.0 0.00 0.03 0.03 1008.7
20260509032532 0 0.0 0.0 0.00 0.03 0.03 1008.7
20260509032433 0 0.0 0.0 0.00 0.03 0.03 1008.7
20260509032331 0 0.0 0.0 0.00 0.03 0.03 1008.8
20260509032231 0 0.0 0.0 0.00 0.03 0.03 1008.8
20260509032131 0 0.0 0.0 0.00 0.03 0.03 1008.8
20260509032031 0 0.0 0.0 0.00 0.03 0.03 1008.9
20260509031932 0 0.0 0.0 0.00 0.03 0.03 1008.9
20260509031829 0 0.0 0.0 0.00 0.03 0.03 1008.8
20260509031729 0 0.0 0.0 0.00 0.03 0.03 1008.8
20260509031604 0 0.0 0.0 0.00 0.03 0.03 1008.7
20260509031503 0 0.0 0.0 0.00 0.03 0.03 1008.7
20260509031403 0 0.0 0.0 0.00 0.03 0.03 1008.6
20260509031303 0 0.0 0.0 0.00 0.03 0.03 1008.7
20260509031203 74 0 2.0 2.0 0.00 0.03 0.03 92 1008.6
20260509031103 74 0 2.0 2.0 0.00 0.03 0.03 92 1008.6
20260509031004 74 0 2.0 2.0 0.00 0.03 0.03 92 1008.5
20260509030902 74 0 2.0 2.0 0.00 0.03 0.03 92 1008.5
20260509030803 74 0 2.0 2.0 0.00 0.03 0.03 92 1008.5
20260509030703 74 0 2.0 3.0 0.00 0.03 0.03 92 1008.6
20260509030603 74 0 2.0 3.0 0.00 0.03 0.03 92 1008.6
20260509030503 74 0 2.0 3.0 0.00 0.03 0.03 92 1008.6
20260509030403 74 0 2.0 3.0 0.00 0.03 0.03 92 1008.7
20260509030303 74 0 2.0 3.0 0.00 0.03 0.03 92 1008.7
20260509030203 74 0 2.0 3.0 0.00 0.03 0.03 92 1008.8
20260509030004 74 0 2.0 3.0 0.00 0.03 0.03 92 1008.7
20260509025903 74 0 2.0 3.0 0.00 0.03 0.03 92 1008.8
20260509025803 74 0 2.0 3.0 0.00 0.03 0.03 92 1008.7
20260509025702 74 0 2.0 3.0 0.00 0.03 0.03 92 1008.7
20260509025604 74 0 2.0 3.0 0.00 0.03 0.03 92 1008.6
20260509025503 74 0 3.0 4.0 0.00 0.03 0.03 92 1008.6
20260509025403 74 0 3.0 5.0 0.00 0.03 0.03 92 1008.5
20260509025306 74 0 3.0 5.0 0.00 0.03 0.03 92 1008.6
20260509025204 74 0 3.0 5.0 0.00 0.03 0.03 92 1008.6
20260509025104 74 0 3.0 5.0 0.00 0.03 0.03 92 1008.6
20260509025005 74 0 3.0 5.0 0.00 0.03 0.03 92 1008.6
20260509024904 74 0 3.0 5.0 0.00 0.03 0.03 92 1008.5
20260509024804 74 0 3.0 5.0 0.00 0.03 0.03 92 1008.5
20260509024635 74 0 2.0 5.0 0.00 0.03 0.03 92 1008.4
20260509024533 74 0 3.0 5.0 0.00 0.03 0.03 92 1008.4
20260509024431 74 0 4.0 5.0 0.00 0.03 0.03 92 1008.4
20260509024332 74 0 4.0 5.0 0.00 0.03 0.03 92 1008.4
20260509024233 74 0 1.0 2.0 0.00 0.03 0.03 92 1008.4
20260509024132 74 0 1.0 4.0 0.00 0.03 0.03 92 1008.4
20260509024033 74 0 1.0 4.0 0.00 0.03 0.03 92 1008.4
20260509023932 74 0 1.0 4.0 0.00 0.03 0.03 92 1008.4
20260509023832 74 0 1.0 4.0 0.00 0.03 0.03 92 1008.5
20260509023722 74 0 1.0 4.0 0.00 0.03 0.03 92 1008.5
20260509023622 74 0 1.0 4.0 0.00 0.03 0.03 92 1008.4
20260509023522 74 0 1.0 4.0 0.00 0.03 0.03 92 1008.4
20260509023421 74 0 2.0 4.0 0.00 0.03 0.03 92 1008.5
20260509023320 74 0 2.0 4.0 0.00 0.03 0.03 92 1008.5
20260509023220 74 0 2.0 4.0 0.00 0.03 0.03 92 1008.5
20260509023120 74 0 2.0 4.0 0.00 0.03 0.03 92 1008.5
20260509023020 74 0 3.0 4.0 0.00 0.03 0.03 91 1008.5
20260509022922 74 0 2.0 4.0 0.00 0.03 0.03 91 1008.5
20260509022821 74 0 2.0 4.0 0.00 0.03 0.03 91 1008.5
20260509022720 74 0 2.0 4.0 0.00 0.03 0.03 91 1008.4
20260509022620 74 0 2.0 4.0 0.00 0.03 0.03 91 1008.4
20260509022519 74 0 2.0 4.0 0.00 0.03 0.03 91 1008.3
20260509022420 74 0 2.0 4.0 0.00 0.03 0.03 91 1008.3
20260509022319 74 0 2.0 4.0 0.00 0.03 0.03 91 1008.2
20260509022219 74 0 2.0 4.0 0.00 0.03 0.03 91 1008.1
20260509022120 74 0 3.0 4.0 0.00 0.03 0.03 91 1008.1
20260509022019 74 0 3.0 4.0 0.00 0.03 0.03 91 1008.0
20260509021919 74 0 3.0 4.0 0.00 0.03 0.03 91 1008.0
20260509021819 74 0 3.0 4.0 0.00 0.03 0.03 91 1008.0
20260509021718 74 0 2.0 3.0 0.00 0.03 0.03 91 1008.0
20260509021619 74 0 2.0 3.0 0.00 0.03 0.03 91 1008.0
20260509021520 74 0 1.0 2.0 0.00 0.03 0.03 91 1008.0
20260509021419 0 0.0 0.0 0.00 0.03 0.03 1008.1
20260509021319 0 0.0 0.0 0.00 0.03 0.03 1008.1
20260509021218 0 0.0 0.0 0.00 0.03 0.03 1008.0
20260509021117 0 0.0 0.0 0.00 0.03 0.03 1008.0
20260509021018 0 0.0 0.0 0.00 0.03 0.03 1008.0
20260509020918 0 0.0 0.0 0.00 0.03 0.03 1007.9
20260509020817 0 0.0 0.0 0.00 0.03 0.03 1008.0
20260509020716 0 0.0 0.0 0.00 0.03 0.03 1008.0
20260509020617 0 0.0 0.0 0.00 0.03 0.03 1008.0
20260509020516 0 0.0 0.0 0.00 0.03 0.03 1008.1
20260509020416 0 0.0 0.0 0.00 0.03 0.03 1008.1
20260509020316 0 0.0 0.0 0.00 0.03 0.03 1008.0
20260509020214 0 0.0 0.0 0.00 0.03 0.03 1008.0
20260509020114 0 0.0 0.0 0.00 0.03 0.03 1008.0
20260509020015 0 0.0 0.0 0.00 0.03 0.03 1008.0
20260509015914 0 0.0 0.0 0.00 0.03 0.03 1008.0
20260509015813 0 0.0 0.0 0.00 0.03 0.03 1008.0
20260509015713 0 0.0 0.0 0.00 0.03 0.03 1008.0
20260509015612 0 0.0 0.0 0.00 0.03 0.03 1008.0
20260509015513 0 0.0 0.0 0.00 0.03 0.03 1008.1
20260509015412 0 0.0 0.0 0.00 0.03 0.03 1008.0
20260509015314 0 0.0 0.0 0.00 0.03 0.03 1008.0
20260509015210 0 0.0 0.0 0.00 0.03 0.03 1008.1
20260509015111 0 0.0 0.0 0.00 0.03 0.03 1008.0
20260509015010 0 0.0 0.0 0.00 0.03 0.03 1008.0
20260509014910 0 0.0 0.0 0.00 0.03 0.03 1008.0
20260509014810 0 0.0 0.0 0.00 0.03 0.03 1008.0
20260509014709 0 0.0 0.0 0.00 0.03 0.03 1007.9
20260509014609 0 0.0 0.0 0.00 0.03 0.03 1008.0
20260509014509 0 0.0 0.0 0.00 0.03 0.03 1007.9
20260509014409 0 0.0 0.0 0.00 0.03 0.03 1007.9
20260509014309 0 0.0 0.0 0.00 0.03 0.03 1007.8
20260509014206 0 0.0 0.0 0.00 0.03 0.03 1007.7
20260509014105 75 0 1.0 2.0 0.00 0.03 0.03 91 1007.6
20260509014006 75 0 1.0 2.0 0.00 0.03 0.03 91 1007.7
20260509013905 75 0 1.0 2.0 0.00 0.03 0.03 91 1007.7
20260509013805 75 0 1.0 3.0 0.00 0.03 0.03 91 1007.6
20260509013703 75 0 1.0 3.0 0.00 0.03 0.03 91 1007.7
20260509013604 75 0 1.0 3.0 0.00 0.03 0.03 91 1007.7
20260509013504 75 0 1.0 3.0 0.00 0.03 0.03 91 1007.7
20260509013403 75 0 1.0 3.0 0.00 0.03 0.03 91 1007.7
20260509013303 75 0 1.0 3.0 0.00 0.03 0.03 91 1007.8
20260509013203 75 0 1.0 3.0 0.00 0.03 0.03 91 1007.8
20260509013104 75 0 1.0 3.0 0.00 0.03 0.03 91 1007.8
20260509013002 75 0 2.0 3.0 0.00 0.03 0.03 91 1007.9
20260509012904 75 0 2.0 3.0 0.00 0.03 0.03 91 1007.8
20260509012803 75 0 2.0 3.0 0.00 0.03 0.03 91 1007.8
20260509012704 75 0 2.0 3.0 0.00 0.03 0.03 91 1007.8
20260509012603 75 0 2.0 3.0 0.00 0.03 0.03 91 1007.9
20260509012503 75 0 1.0 1.0 0.00 0.03 0.03 90 1007.9
20260509012403 0 0.0 0.0 0.00 0.03 0.03 1007.9
20260509012306 0 0.0 0.0 0.00 0.03 0.03 1007.8
20260509012203 0 0.0 0.0 0.00 0.03 0.03 1007.9
20260509012102 0 0.0 0.0 0.00 0.03 0.03 1007.9
20260509012004 0 0.0 0.0 0.00 0.03 0.03 1007.9
20260509011903 0 0.0 0.0 0.00 0.03 0.03 1007.9
20260509011803 0 0.0 0.0 0.00 0.03 0.03 1007.9
20260509011702 0 0.0 0.0 0.00 0.03 0.03 1007.9
20260509011602 0 0.0 0.0 0.00 0.03 0.03 1007.8
20260509011501 0 0.0 0.0 0.00 0.03 0.03 1007.8
20260509011401 0 0.0 0.0 0.00 0.03 0.03 1007.8
20260509011301 0 0.0 0.0 0.00 0.03 0.03 1007.8
20260509011159 0 0.0 0.0 0.00 0.03 0.03 1007.8
20260509011100 74 0 2.0 2.0 0.00 0.03 0.03 90 1007.9
20260509010959 74 0 2.0 3.0 0.00 0.03 0.03 90 1007.9
20260509010900 74 0 2.0 3.0 0.00 0.03 0.03 90 1007.8
20260509010800 74 0 2.0 3.0 0.00 0.03 0.03 90 1007.8
20260509010658 74 0 2.0 3.0 0.00 0.03 0.03 90 1007.9
20260509010558 74 0 2.0 3.0 0.00 0.03 0.03 90 1007.9
20260509010457 74 0 2.0 3.0 0.00 0.03 0.03 90 1007.9
20260509010357 74 0 2.0 3.0 0.00 0.03 0.03 90 1007.8
20260509010258 74 0 2.0 3.0 0.00 0.03 0.03 90 1007.9
20260509010157 74 0 2.0 3.0 0.00 0.03 0.03 90 1008.0
20260509010033 74 0 0.0 2.0 0.00 0.03 0.03 91 1007.9
20260509005932 74 0 0.0 2.0 0.00 0.03 0.03 90 1007.9
20260509005833 74 0 0.0 2.0 0.00 0.03 0.03 90 1007.8
20260509005732 74 0 0.0 3.0 0.00 0.03 0.03 90 1007.8
20260509005609 74 0 0.0 3.0 0.00 0.03 0.03 90 1007.8
20260509005510 74 0 1.0 3.0 0.00 0.03 0.03 90 1007.7
20260509005406 74 0 1.0 3.0 0.00 0.03 0.03 90 1007.7
20260509005306 74 0 2.0 3.0 0.00 0.03 0.03 90 1007.7
20260509005203 74 0 2.0 3.0 0.00 0.03 0.03 90 1007.7
20260509005104 74 0 2.0 3.0 0.00 0.03 0.03 90 1007.7
20260509005004 74 0 2.0 3.0 0.00 0.03 0.03 90 1007.7
20260509004904 74 0 2.0 3.0 0.00 0.03 0.03 90 1007.7
20260509004803 74 0 2.0 3.0 0.00 0.03 0.03 90 1007.8
20260509004703 74 0 1.0 2.0 0.00 0.03 0.03 90 1007.8
20260509004604 74 0 1.0 2.0 0.00 0.03 0.03 90 1007.8
20260509004504 74 0 1.0 2.0 0.00 0.03 0.03 90 1007.8
20260509004404 74 0 1.0 2.0 0.00 0.03 0.03 90 1007.9
20260509004303 74 0 1.0 2.0 0.00 0.03 0.03 90 1007.8
20260509004203 74 0 1.0 2.0 0.00 0.03 0.03 90 1007.8
20260509004104 74 0 1.0 2.0 0.00 0.03 0.03 91 1007.8
20260509004003 0 0.0 0.0 0.00 0.03 0.03 1007.7
20260509003904 0 0.0 0.0 0.00 0.03 0.03 1007.7
20260509003803 0 0.0 0.0 0.00 0.03 0.03 1007.7
20260509003703 0 0.0 0.0 0.00 0.03 0.03 1007.7
20260509003604 0 0.0 0.0 0.00 0.03 0.03 1007.7
20260509003503 0 0.0 0.0 0.00 0.03 0.03 1007.7
20260509003403 0 0.0 0.0 0.00 0.03 0.03 1007.6
20260509003303 0 0.0 0.0 0.00 0.03 0.03 1007.7
20260509003203 0 0.0 0.0 0.00 0.03 0.03 1007.8
20260509003103 0 0.0 0.0 0.00 0.03 0.03 1007.7
20260509003003 0 0.0 0.0 0.00 0.03 0.03 1007.7
20260509002903 0 0.0 0.0 0.00 0.03 0.03 1007.6
20260509002803 0 0 3.0 4.0 0.00 0.03 0.03 1007.7
20260509002704 74 0 3.0 4.0 0.00 0.03 0.03 91 1007.6
20260509002603 74 0 3.0 4.0 0.00 0.03 0.03 91 1007.6
20260509002505 74 0 3.0 4.0 0.00 0.03 0.03 91 1007.7
20260509002403 74 0 3.0 4.0 0.00 0.03 0.03 91 1007.6
20260509002306 74 0 3.0 4.0 0.00 0.03 0.03 91 1007.7
20260509002203 74 0 3.0 5.0 0.00 0.03 0.03 91 1007.7
20260509002103 74 0 3.0 6.0 0.00 0.03 0.03 91 1007.8
20260509002004 74 0 3.0 6.0 0.00 0.03 0.03 91 1007.8
20260509001904 74 0 3.0 6.0 0.00 0.03 0.03 91 1007.8
20260509001803 74 0 3.0 6.0 0.00 0.03 0.03 91 1007.8
20260509001703 74 0 4.0 6.0 0.00 0.03 0.03 91 1007.7
20260509001603 74 0 4.0 6.0 0.00 0.03 0.03 91 1007.7
20260509001450 74 0 4.0 6.0 0.00 0.03 0.03 91 1007.7
20260509001349 74 0 4.0 6.0 0.00 0.03 0.03 91 1007.7
20260509001250 74 0 4.0 6.0 0.00 0.03 0.03 91 1007.6
20260509001148 74 0 4.0 6.0 0.00 0.03 0.03 91 1007.6
20260509001049 74 0 4.0 4.0 0.00 0.03 0.03 91 1007.8
20260509000949 0 0.0 0.0 0.00 0.03 0.03 1007.7
20260509000847 0 0.0 0.0 0.00 0.03 0.03 1007.7
20260509000748 0 0.0 0.0 0.00 0.03 0.03 1007.7
20260509000647 0 0.0 0.0 0.00 0.03 0.03 1007.7
20260509000532 0 0.0 0.0 0.00 0.03 0.03 1007.7
20260509000432 0 0.0 0.0 0.00 0.03 0.03 1007.7
20260509000333 0 0.0 0.0 0.00 0.03 0.03 1007.7
20260509000233 0 0.0 0.0 0.00 0.03 0.03 1007.8
20260509000132 0 0.0 0.0 0.00 0.03 0.03 1007.7
20260509000033 0 0.0 0.0 0.00 0.03 0.03 1007.8
20260508235932 0 0.0 0.0 0.00 0.03 0.03 1007.8
20260508235833 0 0.0 0.0 0.00 0.03 0.03 1007.8
20260508235733 0 0.0 0.0 0.00 0.03 0.03 1007.8
20260508235631 0 0.0 0.0 0.00 0.03 0.03 1007.8
20260508235504 0 0.0 0.0 0.00 0.03 0.03 1007.8
20260508235403 0 0.0 0.0 0.00 0.03 0.03 1007.7
20260508235306 0 0.0 0.0 0.00 0.03 0.03 1007.8
20260508235203 0 0.0 0.0 0.00 0.03 0.03 1007.8
20260508235103 0 0.0 0.0 0.00 0.03 0.03 1007.9
20260508235004 0 0.0 0.0 0.00 0.03 0.03 1007.9
20260508234904 0 0.0 0.0 0.00 0.03 0.03 1007.7
20260508234803 0 0.0 0.0 0.00 0.03 0.03 1007.8
20260508234703 0 0.0 0.0 0.00 0.03 0.03 1007.8
20260508234604 0 0.0 0.0 0.00 0.03 0.03 1007.8
20260508234504 0 0.0 0.0 0.00 0.03 0.03 1007.9
20260508234403 0 0.0 0.0 0.00 0.03 0.03 1007.8
20260508234303 0 0.0 0.0 0.00 0.03 0.03 1007.9
20260508234204 0 0.0 0.0 0.00 0.03 0.03 1007.8
20260508234103 0 0.0 0.0 0.00 0.03 0.03 1007.8
20260508234004 0 0.0 0.0 0.00 0.03 0.03 1007.8
20260508233903 0 0.0 0.0 0.00 0.03 0.03 1007.8
20260508233803 0 0.0 0.0 0.00 0.03 0.03 1007.9
20260508233703 0 0.0 0.0 0.00 0.03 0.03 1008.0
20260508233604 0 0.0 0.0 0.00 0.03 0.03 1008.0
20260508233503 0 0.0 0.0 0.00 0.03 0.03 1008.1
20260508233403 0 0.0 0.0 0.00 0.03 0.03 1008.0
20260508233303 74 0 1.0 3.0 0.00 0.03 0.03 91 1008.1
20260508233203 74 0 1.0 4.0 0.00 0.03 0.03 91 1008.1
20260508233103 74 0 1.0 4.0 0.00 0.03 0.03 91 1008.0
20260508233003 74 0 1.0 4.0 0.00 0.03 0.03 91 1008.1
20260508232903 74 0 1.0 4.0 0.00 0.03 0.03 91 1008.0
20260508232803 74 0 1.0 4.0 0.00 0.03 0.03 91 1008.1
20260508232704 74 0 1.0 4.0 0.00 0.03 0.03 91 1008.2
20260508232603 74 0 1.0 4.0 0.00 0.03 0.03 91 1008.2
20260508232505 74 0 1.0 4.0 0.00 0.03 0.03 91 1008.2
20260508232404 74 0 1.0 4.0 0.00 0.03 0.03 91 1008.2
20260508232301 74 0 1.0 4.0 0.00 0.03 0.03 91 1008.2
20260508232204 74 0 0.0 3.0 0.00 0.03 0.03 91 1008.2
20260508232102 74 0 0.0 3.0 0.00 0.03 0.03 91 1008.2
20260508232004 0 0 3.0 3.0 0.00 0.03 0.03 1008.1
20260508231903 0 0 3.0 3.0 0.00 0.03 0.03 1008.2
20260508231803 0 0 3.0 3.0 0.00 0.03 0.03 1008.2
20260508231703 0 0 3.0 3.0 0.00 0.03 0.03 1008.2
20260508231604 0 0 3.0 3.0 0.00 0.03 0.03 1008.2
20260508231505 0 0.0 0.0 0.00 0.03 0.03 1008.2
20260508231404 0 0.0 0.0 0.00 0.03 0.03 1008.1
20260508231303 0 0.0 0.0 0.00 0.03 0.03 1008.1
20260508231203 0 0.0 0.0 0.00 0.03 0.03 1008.1
20260508231103 0 0.0 0.0 0.00 0.03 0.03 1008.0
20260508231003 0 0.0 0.0 0.00 0.03 0.03 1008.0
20260508230903 0 0.0 0.0 0.00 0.03 0.03 1007.9
20260508230803 0 0.0 0.0 0.00 0.03 0.03 1008.0
20260508230703 0 0.0 0.0 0.00 0.03 0.03 1007.9
20260508230603 0 0.0 0.0 0.00 0.03 0.03 1007.9
20260508230504 0 0.0 0.0 0.00 0.03 0.03 1008.0
20260508230403 0 0.0 0.0 0.00 0.03 0.03 1007.9
20260508230303 0 0.0 0.0 0.00 0.03 0.03 1008.0
20260508230204 0 0.0 0.0 0.00 0.03 0.03 1008.0
20260508230033 0 0.0 0.0 0.00 0.03 0.03 1007.9
20260508225932 0 0.0 0.0 0.00 0.03 0.03 1007.9
20260508225832 0 0.0 0.0 0.00 0.03 0.03 1007.8
20260508225732 0 0.0 0.0 0.00 0.03 0.03 1007.9
20260508225625 0 0.0 0.0 0.00 0.03 0.03 1007.8
20260508225526 0 0.0 0.0 0.00 0.03 0.03 1007.8
20260508225426 0 0.0 0.0 0.00 0.03 0.03 1007.9
20260508225324 0 0.0 0.0 0.00 0.03 0.03 1007.8
20260508225225 0 0.0 0.0 0.00 0.03 0.03 1007.8
20260508225123 0 0.0 0.0 0.00 0.03 0.03 1007.8
20260508225025 0 0.0 0.0 0.00 0.03 0.03 1007.8
20260508224924 0 0.0 0.0 0.00 0.03 0.03 1007.9
20260508224822 0 0.0 0.0 0.00 0.03 0.03 1007.8
20260508224722 0 0.0 0.0 0.00 0.03 0.03 1007.8
20260508224622 0 0.0 0.0 0.00 0.03 0.03 1007.8
20260508224522 0 0.0 0.0 0.00 0.03 0.03 1007.9
20260508224422 0 0.0 0.0 0.00 0.03 0.03 1007.9
20260508224320 0 0.0 0.0 0.00 0.03 0.03 1007.9
20260508224220 0 0.0 0.0 0.00 0.03 0.03 1007.9
20260508224120 0 0.0 0.0 0.00 0.03 0.03 1007.9
20260508224020 0 0.0 0.0 0.00 0.03 0.03 1007.9
20260508223920 0 0.0 0.0 0.00 0.03 0.03 1008.0
20260508223818 0 0.0 0.0 0.00 0.03 0.03 1008.0
20260508223719 0 0.0 0.0 0.00 0.03 0.03 1008.0
20260508223619 0 0.0 0.0 0.00 0.03 0.03 1008.0
20260508223518 0 0.0 0.0 0.00 0.03 0.03 1008.0
20260508223418 0 0.0 0.0 0.00 0.03 0.03 1008.0
20260508223317 0 0.0 0.0 0.00 0.03 0.03 1008.0
20260508223217 0 0.0 0.0 0.00 0.03 0.03 1007.9
20260508223116 0 0.0 0.0 0.00 0.03 0.03 1007.9
20260508223016 0 0.0 0.0 0.00 0.03 0.03 1007.9
20260508222917 0 0.0 0.0 0.00 0.03 0.03 1007.9
20260508222815 0 0.0 0.0 0.00 0.03 0.03 1007.9
20260508222716 74 0 4.0 3.0 0.00 0.03 0.03 91 1008.0
20260508222615 74 0 4.0 5.0 0.00 0.03 0.03 91 1008.0
20260508222516 74 0 4.0 6.0 0.00 0.03 0.03 91 1008.0
20260508222415 74 0 4.0 6.0 0.00 0.03 0.03 91 1008.0
20260508222313 74 0 4.0 6.0 0.00 0.03 0.03 91 1008.1
20260508222212 74 0 4.0 6.0 0.00 0.03 0.03 91 1008.0